Observation data for Umbarger on 12/10/2018      Previous  Date       Current Mesonet Observations  Soil Data  Daily Summary Page  Observations in Plain Language
KUM1 100600Z 22006KT M06/M09 A3037 RMK A01 T10551086  RH  078%=      5-min Rain = 0
KUM1 100601Z 22006KT M06/M09 A3037 RMK A01 T10551086  RH  079%=      5-min Rain = 0
KUM1 100602Z 23006KT M06/M09 A3037 RMK A01 T10561086  RH  079%=      5-min Rain = 0
KUM1 100603Z 22006KT M06/M09 A3037 RMK A01 T10551085  RH  080%=      5-min Rain = 0
KUM1 100604Z 22007KT M05/M08 A3037 RMK A01 T10541083  RH  080%=      5-min Rain = 0
KUM1 100605Z 22007KT M05/M08 A3037 RMK A01 T10531083  RH  079%=      5-min Rain = 0
KUM1 100606Z 22006KT M05/M08 A3037 RMK A01 T10531084  RH  079%=      5-min Rain = 0
KUM1 100607Z 22006KT M05/M08 A3036 RMK A01 T10531084  RH  079%=      5-min Rain = 0
KUM1 100608Z 22006KT M05/M08 A3036 RMK A01 T10521084  RH  078%=      5-min Rain = 0
KUM1 100609Z 22006KT M05/M08 A3036 RMK A01 T10521084  RH  078%=      5-min Rain = 0
KUM1 100610Z 22006KT M05/M08 A3036 RMK A01 T10511084  RH  078%=      5-min Rain = 0
KUM1 100611Z 22006KT M05/M09 A3036 RMK A01 T10511085  RH  078%=      5-min Rain = 0
KUM1 100612Z 22006KT M05/M09 A3036 RMK A01 T10521085  RH  077%=      5-min Rain = 0
KUM1 100613Z 22006KT M05/M09 A3036 RMK A01 T10521085  RH  077%=      5-min Rain = 0
KUM1 100614Z 22007KT M05/M09 A3036 RMK A01 T10521085  RH  077%=      5-min Rain = 0
KUM1 100615Z 22007KT M05/M09 A3036 RMK A01 T10511085  RH  077%=      5-min Rain = 0
KUM1 100616Z 22007KT M05/M09 A3036 RMK A01 T10511085  RH  077%=      5-min Rain = 0
KUM1 100617Z 23007KT M05/M08 A3036 RMK A01 T10501084  RH  077%=      5-min Rain = 0
KUM1 100618Z 23008KT M05/M08 A3036 RMK A01 T10471081  RH  077%=      5-min Rain = 0
KUM1 100619Z 23008KT M04/M08 A3036 RMK A01 T10441079  RH  077%=      5-min Rain = 0
KUM1 100620Z 23008KT M04/M08 A3036 RMK A01 T10421079  RH  076%=      5-min Rain = 0
KUM1 100621Z 23008KT M04/M08 A3036 RMK A01 T10401079  RH  074%=      5-min Rain = 0
KUM1 100622Z 23008KT M04/M08 A3036 RMK A01 T10381079  RH  073%=      5-min Rain = 0
KUM1 100623Z 23008KT M04/M08 A3036 RMK A01 T10381080  RH  073%=      5-min Rain = 0
KUM1 100624Z 23008KT M04/M08 A3036 RMK A01 T10381081  RH  072%=      5-min Rain = 0
KUM1 100625Z 23008KT M04/M08 A3036 RMK A01 T10381081  RH  072%=      5-min Rain = 0
KUM1 100626Z 23008KT M04/M08 A3036 RMK A01 T10381080  RH  072%=      5-min Rain = 0
KUM1 100627Z 23008KT M04/M08 A3036 RMK A01 T10381080  RH  073%=      5-min Rain = 0
KUM1 100628Z 24008KT M04/M08 A3036 RMK A01 T10391080  RH  073%=      5-min Rain = 0
KUM1 100629Z 24008KT M04/M08 A3036 RMK A01 T10401080  RH  074%=      5-min Rain = 0
KUM1 100630Z 24008KT M04/M08 A3036 RMK A01 T10401079  RH  074%=      5-min Rain = 0
KUM1 100631Z 24008KT M04/M08 A3036 RMK A01 T10411079  RH  075%=      5-min Rain = 0
KUM1 100632Z 24008KT M04/M08 A3036 RMK A01 T10411079  RH  075%=      5-min Rain = 0
KUM1 100633Z 24008KT M04/M08 A3036 RMK A01 T10401078  RH  075%=      5-min Rain = 0
KUM1 100634Z 24008KT M04/M08 A3036 RMK A01 T10391077  RH  075%=      5-min Rain = 0
KUM1 100635Z 24008KT M04/M08 A3035 RMK A01 T10391078  RH  074%=      5-min Rain = 0
KUM1 100636Z 25008KT M04/M08 A3035 RMK A01 T10401078  RH  074%=      5-min Rain = 0
KUM1 100637Z 25008KT M04/M08 A3035 RMK A01 T10401078  RH  075%=      5-min Rain = 0
KUM1 100638Z 25008KT M04/M08 A3035 RMK A01 T10401078  RH  075%=      5-min Rain = 0
KUM1 100639Z 24007KT M04/M08 A3035 RMK A01 T10401078  RH  074%=      5-min Rain = 0
KUM1 100640Z 24007KT M04/M08 A3035 RMK A01 T10401079  RH  074%=      5-min Rain = 0
KUM1 100641Z 24007KT M04/M08 A3035 RMK A01 T10401080  RH  074%=      5-min Rain = 0
KUM1 100642Z 24007KT M04/M08 A3035 RMK A01 T10411081  RH  074%=      5-min Rain = 0
KUM1 100643Z 24007KT M04/M08 A3035 RMK A01 T10431082  RH  074%=      5-min Rain = 0
KUM1 100644Z 24007KT M04/M08 A3035 RMK A01 T10431082  RH  075%=      5-min Rain = 0
KUM1 100645Z 24008KT M04/M08 A3035 RMK A01 T10431081  RH  075%=      5-min Rain = 0
KUM1 100646Z 23008KT M04/M08 A3035 RMK A01 T10431082  RH  075%=      5-min Rain = 0
KUM1 100647Z 23007KT M04/M08 A3035 RMK A01 T10431082  RH  075%=      5-min Rain = 0
KUM1 100648Z 22008KT M05/M08 A3035 RMK A01 T10451082  RH  075%=      5-min Rain = 0
KUM1 100649Z 23008KT M05/M08 A3035 RMK A01 T10461083  RH  075%=      5-min Rain = 0
KUM1 100650Z 24008KT M05/M08 A3035 RMK A01 T10451082  RH  076%=      5-min Rain = 0
KUM1 100651Z 23007KT M05/M08 A3035 RMK A01 T10451082  RH  076%=      5-min Rain = 0
KUM1 100652Z 23007KT M05/M08 A3035 RMK A01 T10451082  RH  076%=      5-min Rain = 0
KUM1 100653Z 23007KT M05/M08 A3035 RMK A01 T10451082  RH  076%=      5-min Rain = 0
KUM1 100654Z 22008KT M05/M08 A3035 RMK A01 T10461082  RH  076%=      5-min Rain = 0
KUM1 100655Z 23008KT M05/M08 A3035 RMK A01 T10461083  RH  076%=      5-min Rain = 0
KUM1 100656Z 22008KT M05/M08 A3035 RMK A01 T10471082  RH  076%=      5-min Rain = 0
KUM1 100657Z 23007KT M05/M08 A3035 RMK A01 T10471082  RH  076%=      5-min Rain = 0
KUM1 100658Z 22007KT M05/M08 A3035 RMK A01 T10471082  RH  076%=      5-min Rain = 0
KUM1 100659Z 22007KT M05/M08 A3034 RMK A01 T10481083  RH  076%=      5-min Rain = 0
KUM1 100700Z 23007KT M05/M08 A3034 RMK A01 T10491084  RH  076%=      5-min Rain = 0
KUM1 100701Z 22007KT M05/M08 A3034 RMK A01 T10491084  RH  077%=      5-min Rain = 0
KUM1 100702Z 22007KT M05/M08 A3034 RMK A01 T10491083  RH  077%=      5-min Rain = 0
KUM1 100703Z 22007KT M05/M08 A3034 RMK A01 T10481082  RH  077%=      5-min Rain = 0
KUM1 100704Z 22006KT M05/M08 A3034 RMK A01 T10481083  RH  076%=      5-min Rain = 0
KUM1 100705Z 23006KT M05/M08 A3034 RMK A01 T10491084  RH  076%=      5-min Rain = 0
KUM1 100706Z 23006KT M05/M08 A3034 RMK A01 T10491083  RH  077%=      5-min Rain = 0
KUM1 100707Z 22006KT M05/M08 A3034 RMK A01 T10481082  RH  077%=      5-min Rain = 0
KUM1 100708Z 22006KT M05/M08 A3034 RMK A01 T10481082  RH  077%=      5-min Rain = 0
KUM1 100709Z 22007KT M05/M08 A3034 RMK A01 T10481084  RH  076%=      5-min Rain = 0
KUM1 100710Z 22007KT M05/M09 A3034 RMK A01 T10501085  RH  076%=      5-min Rain = 0
KUM1 100711Z 22007KT M05/M09 A3034 RMK A01 T10511086  RH  077%=      5-min Rain = 0
KUM1 100712Z 23007KT M05/M09 A3034 RMK A01 T10511085  RH  077%=      5-min Rain = 0
KUM1 100713Z 23007KT M05/M08 A3034 RMK A01 T10501084  RH  077%=      5-min Rain = 0
KUM1 100714Z 22008KT M05/M08 A3034 RMK A01 T10491083  RH  077%=      5-min Rain = 0
KUM1 100715Z 22008KT M05/M08 A3034 RMK A01 T10491083  RH  077%=      5-min Rain = 0
KUM1 100716Z 22008KT M05/M08 A3034 RMK A01 T10491083  RH  077%=      5-min Rain = 0
KUM1 100717Z 22008KT M05/M08 A3034 RMK A01 T10491084  RH  076%=      5-min Rain = 0
KUM1 100718Z 22009KT M05/M09 A3034 RMK A01 T10511086  RH  076%=      5-min Rain = 0
KUM1 100719Z 23008KT M05/M09 A3034 RMK A01 T10511086  RH  077%=      5-min Rain = 0
KUM1 100720Z 23008KT M05/M09 A3034 RMK A01 T10521085  RH  077%=      5-min Rain = 0
KUM1 100721Z 23008KT M05/M08 A3034 RMK A01 T10511084  RH  077%=      5-min Rain = 0
KUM1 100722Z 23008KT M05/M08 A3034 RMK A01 T10491084  RH  077%=      5-min Rain = 0
KUM1 100723Z 23008KT M05/M08 A3034 RMK A01 T10491083  RH  077%=      5-min Rain = 0
KUM1 100724Z 23008KT M05/M08 A3034 RMK A01 T10481083  RH  077%=      5-min Rain = 0
KUM1 100725Z 23008KT M05/M08 A3034 RMK A01 T10481083  RH  077%=      5-min Rain = 0
KUM1 100726Z 23008KT M05/M08 A3034 RMK A01 T10471083  RH  076%=      5-min Rain = 0
KUM1 100727Z 23008KT M05/M08 A3034 RMK A01 T10471083  RH  076%=      5-min Rain = 0
KUM1 100728Z 23009KT M05/M08 A3034 RMK A01 T10471083  RH  076%=      5-min Rain = 0
KUM1 100729Z 23008KT M05/M08 A3033 RMK A01 T10471083  RH  076%=      5-min Rain = 0
KUM1 100730Z 23009KT M05/M08 A3033 RMK A01 T10471083  RH  076%=      5-min Rain = 0
KUM1 100731Z 23009KT M05/M08 A3033 RMK A01 T10461083  RH  076%=      5-min Rain = 0
KUM1 100732Z 23008KT M05/M08 A3033 RMK A01 T10461083  RH  076%=      5-min Rain = 0
KUM1 100733Z 24009KT M05/M08 A3033 RMK A01 T10461083  RH  076%=      5-min Rain = 0
KUM1 100734Z 24009KT M05/M08 A3033 RMK A01 T10461083  RH  075%=      5-min Rain = 0
KUM1 100735Z 24009KT M05/M08 A3033 RMK A01 T10461083  RH  076%=      5-min Rain = 0
KUM1 100736Z 24008KT M05/M08 A3033 RMK A01 T10471083  RH  076%=      5-min Rain = 0
KUM1 100737Z 24008KT M05/M08 A3033 RMK A01 T10471083  RH  075%=      5-min Rain = 0
KUM1 100738Z 24008KT M05/M08 A3033 RMK A01 T10471083  RH  075%=      5-min Rain = 0
KUM1 100739Z 24008KT M05/M08 A3033 RMK A01 T10461083  RH  075%=      5-min Rain = 0
KUM1 100740Z 24008KT M05/M08 A3033 RMK A01 T10471084  RH  075%=      5-min Rain = 0
KUM1 100741Z 24008KT M05/M09 A3033 RMK A01 T10481085  RH  075%=      5-min Rain = 0
KUM1 100742Z 24008KT M05/M08 A3033 RMK A01 T10481084  RH  076%=      5-min Rain = 0
KUM1 100743Z 24009KT M05/M09 A3033 RMK A01 T10481085  RH  076%=      5-min Rain = 0
KUM1 100744Z 24008KT M05/M09 A3033 RMK A01 T10491085  RH  076%=      5-min Rain = 0
KUM1 100745Z 24009KT M05/M09 A3033 RMK A01 T10491085  RH  076%=      5-min Rain = 0
KUM1 100746Z 24009KT M05/M09 A3033 RMK A01 T10491085  RH  076%=      5-min Rain = 0
KUM1 100747Z 24009KT M05/M09 A3033 RMK A01 T10491085  RH  076%=      5-min Rain = 0
KUM1 100748Z 24009KT M05/M09 A3033 RMK A01 T10491085  RH  076%=      5-min Rain = 0
KUM1 100749Z 24009KT M05/M09 A3033 RMK A01 T10491085  RH  076%=      5-min Rain = 0
KUM1 100750Z 24009KT M05/M08 A3033 RMK A01 T10491084  RH  076%=      5-min Rain = 0
KUM1 100751Z 24009KT M05/M08 A3033 RMK A01 T10481083  RH  076%=      5-min Rain = 0
KUM1 100752Z 24009KT M05/M08 A3033 RMK A01 T10471083  RH  076%=      5-min Rain = 0
KUM1 100753Z 24009KT M05/M08 A3033 RMK A01 T10471084  RH  075%=      5-min Rain = 0
KUM1 100754Z 24008KT M05/M08 A3033 RMK A01 T10471084  RH  075%=      5-min Rain = 0
KUM1 100755Z 24009KT M05/M08 A3033 RMK A01 T10471084  RH  075%=      5-min Rain = 0
KUM1 100756Z 24008KT M05/M08 A3033 RMK A01 T10481084  RH  076%=      5-min Rain = 0
KUM1 100757Z 24008KT M05/M08 A3033 RMK A01 T10481084  RH  076%=      5-min Rain = 0
KUM1 100758Z 24008KT M05/M08 A3033 RMK A01 T10481084  RH  076%=      5-min Rain = 0
KUM1 100759Z 24008KT M05/M09 A3033 RMK A01 T10481085  RH  076%=      5-min Rain = 0
KUM1 100800Z 24008KT M05/M09 A3033 RMK A01 T10491085  RH  076%=      5-min Rain = 0
KUM1 100801Z 24009KT M05/M08 A3033 RMK A01 T10491084  RH  076%=      5-min Rain = 0
KUM1 100802Z 24009KT M05/M08 A3033 RMK A01 T10491084  RH  076%=      5-min Rain = 0
KUM1 100803Z 23009KT M05/M08 A3033 RMK A01 T10491084  RH  076%=      5-min Rain = 0
KUM1 100804Z 23008KT M05/M08 A3033 RMK A01 T10491084  RH  076%=      5-min Rain = 0
KUM1 100805Z 23008KT M05/M08 A3033 RMK A01 T10491083  RH  077%=      5-min Rain = 0
KUM1 100806Z 23009KT M05/M08 A3033 RMK A01 T10491083  RH  077%=      5-min Rain = 0
KUM1 100807Z 23009KT M05/M08 A3033 RMK A01 T10491083  RH  077%=      5-min Rain = 0
KUM1 100808Z 23009KT M05/M08 A3033 RMK A01 T10491083  RH  077%=      5-min Rain = 0
KUM1 100809Z 23009KT M05/M08 A3033 RMK A01 T10491083  RH  077%=      5-min Rain = 0
KUM1 100810Z 24009KT M05/M08 A3033 RMK A01 T10491084  RH  077%=      5-min Rain = 0
KUM1 100811Z 24009KT M05/M08 A3033 RMK A01 T10501084  RH  077%=      5-min Rain = 0
KUM1 100812Z 23009KT M05/M08 A3033 RMK A01 T10501084  RH  077%=      5-min Rain = 0
KUM1 100813Z 24009KT M05/M08 A3033 RMK A01 T10501084  RH  077%=      5-min Rain = 0
KUM1 100814Z 24009KT M05/M08 A3033 RMK A01 T10501083  RH  077%=      5-min Rain = 0
KUM1 100815Z 24009KT M05/M08 A3033 RMK A01 T10491082  RH  077%=      5-min Rain = 0
KUM1 100816Z 24008KT M05/M08 A3033 RMK A01 T10471081  RH  077%=      5-min Rain = 0
KUM1 100817Z 24009KT M05/M08 A3033 RMK A01 T10461081  RH  076%=      5-min Rain = 0
KUM1 100818Z 24008KT M05/M08 A3033 RMK A01 T10451082  RH  076%=      5-min Rain = 0
KUM1 100819Z 24009KT M05/M08 A3033 RMK A01 T10461082  RH  076%=      5-min Rain = 0
KUM1 100820Z 24009KT M05/M08 A3033 RMK A01 T10451082  RH  076%=      5-min Rain = 0
KUM1 100821Z 24008KT M05/M08 A3033 RMK A01 T10451082  RH  075%=      5-min Rain = 0
KUM1 100822Z 24008KT M05/M08 A3033 RMK A01 T10451082  RH  075%=      5-min Rain = 0
KUM1 100823Z 24008KT M05/M08 A3033 RMK A01 T10451082  RH  075%=      5-min Rain = 0
KUM1 100824Z 24008KT M05/M08 A3033 RMK A01 T10451082  RH  075%=      5-min Rain = 0
KUM1 100825Z 24008KT M05/M08 A3033 RMK A01 T10451082  RH  075%=      5-min Rain = 0
KUM1 100826Z 25008KT M05/M08 A3033 RMK A01 T10451082  RH  075%=      5-min Rain = 0
KUM1 100827Z 25008KT M05/M08 A3033 RMK A01 T10451083  RH  075%=      5-min Rain = 0
KUM1 100828Z 25008KT M05/M08 A3033 RMK A01 T10461084  RH  075%=      5-min Rain = 0
KUM1 100829Z 25008KT M05/M08 A3033 RMK A01 T10471084  RH  075%=      5-min Rain = 0
KUM1 100830Z 25008KT M05/M08 A3033 RMK A01 T10471084  RH  075%=      5-min Rain = 0
KUM1 100831Z 25008KT M05/M09 A3033 RMK A01 T10481085  RH  076%=      5-min Rain = 0
KUM1 100832Z 25008KT M05/M09 A3033 RMK A01 T10491085  RH  076%=      5-min Rain = 0
KUM1 100833Z 25008KT M05/M09 A3033 RMK A01 T10501085  RH  076%=      5-min Rain = 0
KUM1 100834Z 25008KT M05/M09 A3033 RMK A01 T10521086  RH  077%=      5-min Rain = 0
KUM1 100835Z 26007KT M05/M09 A3033 RMK A01 T10531086  RH  077%=      5-min Rain = 0
KUM1 100836Z 26007KT M05/M09 A3033 RMK A01 T10531086  RH  078%=      5-min Rain = 0
KUM1 100837Z 26008KT M05/M09 A3033 RMK A01 T10541086  RH  078%=      5-min Rain = 0
KUM1 100838Z 25008KT M05/M09 A3033 RMK A01 T10541086  RH  078%=      5-min Rain = 0
KUM1 100839Z 25007KT M05/M09 A3033 RMK A01 T10541085  RH  078%=      5-min Rain = 0
KUM1 100840Z 26007KT M05/M09 A3033 RMK A01 T10541085  RH  079%=      5-min Rain = 0
KUM1 100841Z 26007KT M05/M09 A3033 RMK A01 T10531085  RH  079%=      5-min Rain = 0
KUM1 100842Z 26007KT M05/M09 A3033 RMK A01 T10531085  RH  078%=      5-min Rain = 0
KUM1 100843Z 26007KT M05/M09 A3033 RMK A01 T10531085  RH  078%=      5-min Rain = 0
KUM1 100844Z 26007KT M05/M09 A3033 RMK A01 T10541085  RH  078%=      5-min Rain = 0
KUM1 100845Z 26008KT M05/M09 A3033 RMK A01 T10541086  RH  079%=      5-min Rain = 0
KUM1 100846Z 26008KT M06/M09 A3033 RMK A01 T10551085  RH  079%=      5-min Rain = 0
KUM1 100847Z 26008KT M06/M09 A3033 RMK A01 T10551085  RH  079%=      5-min Rain = 0
KUM1 100848Z 26008KT M05/M08 A3033 RMK A01 T10541084  RH  079%=      5-min Rain = 0
KUM1 100849Z 26008KT M05/M08 A3033 RMK A01 T10541084  RH  080%=      5-min Rain = 0
KUM1 100850Z 26007KT M05/M08 A3033 RMK A01 T10541083  RH  080%=      5-min Rain = 0
KUM1 100851Z 26007KT M05/M08 A3033 RMK A01 T10541084  RH  079%=      5-min Rain = 0
KUM1 100852Z 26007KT M05/M08 A3033 RMK A01 T10531083  RH  079%=      5-min Rain = 0
KUM1 100853Z 27007KT M05/M08 A3032 RMK A01 T10531084  RH  079%=      5-min Rain = 0
KUM1 100854Z 26007KT M05/M08 A3032 RMK A01 T10531084  RH  079%=      5-min Rain = 0
KUM1 100855Z 26007KT M05/M08 A3032 RMK A01 T10531083  RH  079%=      5-min Rain = 0
KUM1 100856Z 27006KT M05/M08 A3032 RMK A01 T10531083  RH  079%=      5-min Rain = 0
KUM1 100857Z 27006KT M05/M08 A3032 RMK A01 T10521083  RH  079%=      5-min Rain = 0
KUM1 100858Z 26006KT M05/M08 A3032 RMK A01 T10511083  RH  079%=      5-min Rain = 0
KUM1 100859Z 26006KT M05/M08 A3032 RMK A01 T10501082  RH  078%=      5-min Rain = 0
KUM1 100900Z 26006KT M05/M08 A3032 RMK A01 T10501082  RH  078%=      5-min Rain = 0
KUM1 100901Z 26006KT M05/M08 A3032 RMK A01 T10481081  RH  078%=      5-min Rain = 0
KUM1 100902Z 26006KT M05/M08 A3032 RMK A01 T10481082  RH  077%=      5-min Rain = 0
KUM1 100903Z 26006KT M05/M08 A3032 RMK A01 T10481082  RH  077%=      5-min Rain = 0
KUM1 100904Z 26006KT M05/M08 A3032 RMK A01 T10481082  RH  077%=      5-min Rain = 0
KUM1 100905Z 26005KT M05/M08 A3032 RMK A01 T10491082  RH  077%=      5-min Rain = 0
KUM1 100906Z 26005KT M05/M08 A3032 RMK A01 T10481082  RH  077%=      5-min Rain = 0
KUM1 100907Z 26005KT M05/M08 A3032 RMK A01 T10491082  RH  077%=      5-min Rain = 0
KUM1 100908Z 26005KT M05/M08 A3032 RMK A01 T10491083  RH  077%=      5-min Rain = 0
KUM1 100909Z 26005KT M05/M08 A3032 RMK A01 T10501083  RH  078%=      5-min Rain = 0
KUM1 100910Z 26005KT M05/M08 A3032 RMK A01 T10511084  RH  078%=      5-min Rain = 0
KUM1 100911Z 26005KT M05/M09 A3032 RMK A01 T10521085  RH  078%=      5-min Rain = 0
KUM1 100912Z 27004KT M05/M09 A3032 RMK A01 T10541087  RH  078%=      5-min Rain = 0
KUM1 100913Z 27004KT M06/M09 A3032 RMK A01 T10561087  RH  078%=      5-min Rain = 0
KUM1 100914Z 28004KT M06/M09 A3032 RMK A01 T10571087  RH  079%=      5-min Rain = 0
KUM1 100915Z 27005KT M06/M09 A3032 RMK A01 T10571087  RH  079%=      5-min Rain = 0
KUM1 100916Z 27005KT M06/M09 A3032 RMK A01 T10591088  RH  080%=      5-min Rain = 0
KUM1 100917Z 27005KT M06/M09 A3032 RMK A01 T10601088  RH  080%=      5-min Rain = 0
KUM1 100918Z 27005KT M06/M09 A3032 RMK A01 T10601088  RH  081%=      5-min Rain = 0
KUM1 100919Z 27005KT M06/M09 A3032 RMK A01 T10611088  RH  081%=      5-min Rain = 0
KUM1 100920Z 27006KT M06/M09 A3032 RMK A01 T10611088  RH  081%=      5-min Rain = 0
KUM1 100921Z 27006KT M06/M09 A3032 RMK A01 T10621088  RH  082%=      5-min Rain = 0
KUM1 100922Z 27006KT M06/M09 A3032 RMK A01 T10621087  RH  082%=      5-min Rain = 0
KUM1 100923Z 27005KT M06/M09 A3032 RMK A01 T10621087  RH  082%=      5-min Rain = 0
KUM1 100924Z 27005KT M06/M09 A3032 RMK A01 T10611086  RH  083%=      5-min Rain = 0
KUM1 100925Z 27005KT M06/M09 A3032 RMK A01 T10621087  RH  083%=      5-min Rain = 0
KUM1 100926Z 27005KT M06/M09 A3032 RMK A01 T10621087  RH  083%=      5-min Rain = 0
KUM1 100927Z 27005KT M06/M09 A3032 RMK A01 T10621086  RH  083%=      5-min Rain = 0
KUM1 100928Z 27005KT M06/M09 A3032 RMK A01 T10611085  RH  083%=      5-min Rain = 0
KUM1 100929Z 27006KT M06/M09 A3032 RMK A01 T10601085  RH  083%=      5-min Rain = 0
KUM1 100930Z 27006KT M06/M09 A3032 RMK A01 T10601086  RH  082%=      5-min Rain = 0
KUM1 100931Z 27006KT M06/M09 A3032 RMK A01 T10601086  RH  082%=      5-min Rain = 0
KUM1 100932Z 27006KT M06/M09 A3032 RMK A01 T10601087  RH  082%=      5-min Rain = 0
KUM1 100933Z 28007KT M06/M09 A3032 RMK A01 T10611087  RH  082%=      5-min Rain = 0
KUM1 100934Z 27007KT M06/M09 A3032 RMK A01 T10621088  RH  082%=      5-min Rain = 0
KUM1 100935Z 27007KT M06/M09 A3032 RMK A01 T10621088  RH  082%=      5-min Rain = 0
KUM1 100936Z 27007KT M06/M09 A3032 RMK A01 T10611088  RH  081%=      5-min Rain = 0
KUM1 100937Z 27007KT M06/M09 A3032 RMK A01 T10601088  RH  081%=      5-min Rain = 0
KUM1 100938Z 27007KT M06/M09 A3032 RMK A01 T10591088  RH  080%=      5-min Rain = 0
KUM1 100939Z 27007KT M06/M09 A3032 RMK A01 T10581088  RH  079%=      5-min Rain = 0
KUM1 100940Z 27008KT M06/M09 A3032 RMK A01 T10571088  RH  079%=      5-min Rain = 0
KUM1 100941Z 27007KT M06/M09 A3032 RMK A01 T10561088  RH  078%=      5-min Rain = 0
KUM1 100942Z 27007KT M06/M09 A3032 RMK A01 T10551088  RH  077%=      5-min Rain = 0
KUM1 100943Z 27007KT M05/M09 A3032 RMK A01 T10541088  RH  077%=      5-min Rain = 0
KUM1 100944Z 27007KT M05/M09 A3032 RMK A01 T10531088  RH  077%=      5-min Rain = 0
KUM1 100945Z 27007KT M05/M09 A3032 RMK A01 T10531088  RH  076%=      5-min Rain = 0
KUM1 100946Z 27007KT M05/M09 A3032 RMK A01 T10531089  RH  076%=      5-min Rain = 0
KUM1 100947Z 27006KT M05/M09 A3032 RMK A01 T10531089  RH  076%=      5-min Rain = 0
KUM1 100948Z 27006KT M05/M09 A3032 RMK A01 T10531089  RH  076%=      5-min Rain = 0
KUM1 100949Z 27006KT M05/M09 A3032 RMK A01 T10531089  RH  076%=      5-min Rain = 0
KUM1 100950Z 27006KT M05/M09 A3032 RMK A01 T10531089  RH  076%=      5-min Rain = 0
KUM1 100951Z 27006KT M05/M09 A3032 RMK A01 T10541090  RH  076%=      5-min Rain = 0
KUM1 100952Z 27006KT M05/M09 A3032 RMK A01 T10541090  RH  076%=      5-min Rain = 0
KUM1 100953Z 27006KT M05/M09 A3032 RMK A01 T10541090  RH  076%=      5-min Rain = 0
KUM1 100954Z 27006KT M05/M09 A3032 RMK A01 T10541090  RH  076%=      5-min Rain = 0
KUM1 100955Z 27006KT M05/M09 A3032 RMK A01 T10541089  RH  076%=      5-min Rain = 0
KUM1 100956Z 27006KT M05/M09 A3032 RMK A01 T10531089  RH  076%=      5-min Rain = 0
KUM1 100957Z 27006KT M05/M09 A3032 RMK A01 T10521089  RH  076%=      5-min Rain = 0
KUM1 100958Z 27007KT M05/M09 A3032 RMK A01 T10521089  RH  075%=      5-min Rain = 0
KUM1 100959Z 26007KT M05/M09 A3032 RMK A01 T10521089  RH  075%=      5-min Rain = 0
KUM1 101000Z 27007KT M05/M09 A3032 RMK A01 T10511089  RH  075%=      5-min Rain = 0
KUM1 101001Z 27007KT M05/M09 A3032 RMK A01 T10501088  RH  074%=      5-min Rain = 0
KUM1 101002Z 27007KT M05/M09 A3032 RMK A01 T10491088  RH  074%=      5-min Rain = 0
KUM1 101003Z 27007KT M05/M09 A3032 RMK A01 T10481088  RH  074%=      5-min Rain = 0
KUM1 101004Z 27007KT M05/M09 A3032 RMK A01 T10481088  RH  074%=      5-min Rain = 0
KUM1 101005Z 27007KT M05/M09 A3032 RMK A01 T10491089  RH  073%=      5-min Rain = 0
KUM1 101006Z 27007KT M05/M09 A3032 RMK A01 T10501090  RH  074%=      5-min Rain = 0
KUM1 101007Z 27006KT M05/M09 A3032 RMK A01 T10511090  RH  074%=      5-min Rain = 0
KUM1 101008Z 27006KT M05/M09 A3032 RMK A01 T10521090  RH  075%=      5-min Rain = 0
KUM1 101009Z 27006KT M05/M09 A3032 RMK A01 T10521090  RH  075%=      5-min Rain = 0
KUM1 101010Z 27006KT M05/M09 A3032 RMK A01 T10531090  RH  075%=      5-min Rain = 0
KUM1 101011Z 27006KT M05/M09 A3032 RMK A01 T10541090  RH  076%=      5-min Rain = 0
KUM1 101012Z 27006KT M05/M09 A3032 RMK A01 T10541090  RH  076%=      5-min Rain = 0
KUM1 101013Z 27006KT M05/M09 A3032 RMK A01 T10541090  RH  076%=      5-min Rain = 0
KUM1 101014Z 26005KT M06/M09 A3032 RMK A01 T10551091  RH  076%=      5-min Rain = 0
KUM1 101015Z 26005KT M06/M09 A3032 RMK A01 T10561091  RH  076%=      5-min Rain = 0
KUM1 101016Z 26005KT M06/M09 A3032 RMK A01 T10571091  RH  077%=      5-min Rain = 0
KUM1 101017Z 26005KT M06/M09 A3032 RMK A01 T10581091  RH  077%=      5-min Rain = 0
KUM1 101018Z 26006KT M06/M09 A3032 RMK A01 T10581091  RH  078%=      5-min Rain = 0
KUM1 101019Z 26006KT M06/M09 A3032 RMK A01 T10581090  RH  078%=      5-min Rain = 0
KUM1 101020Z 26006KT M06/M09 A3031 RMK A01 T10571090  RH  078%=      5-min Rain = 0
KUM1 101021Z 25007KT M06/M09 A3031 RMK A01 T10551088  RH  078%=      5-min Rain = 0
KUM1 101022Z 26007KT M05/M09 A3031 RMK A01 T10521086  RH  077%=      5-min Rain = 0
KUM1 101023Z 26007KT M05/M09 A3031 RMK A01 T10501086  RH  076%=      5-min Rain = 0
KUM1 101024Z 26007KT M05/M09 A3031 RMK A01 T10491087  RH  075%=      5-min Rain = 0
KUM1 101025Z 26008KT M05/M09 A3031 RMK A01 T10491088  RH  074%=      5-min Rain = 0
KUM1 101026Z 25007KT M05/M09 A3031 RMK A01 T10491088  RH  074%=      5-min Rain = 0
KUM1 101027Z 25007KT M05/M09 A3031 RMK A01 T10491088  RH  074%=      5-min Rain = 0
KUM1 101028Z 24007KT M05/M09 A3031 RMK A01 T10491088  RH  074%=      5-min Rain = 0
KUM1 101029Z 25008KT M05/M09 A3031 RMK A01 T10491088  RH  074%=      5-min Rain = 0
KUM1 101030Z 25008KT M05/M09 A3031 RMK A01 T10481088  RH  074%=      5-min Rain = 0
KUM1 101031Z 25007KT M05/M09 A3031 RMK A01 T10471088  RH  073%=      5-min Rain = 0
KUM1 101032Z 25007KT M05/M09 A3031 RMK A01 T10481088  RH  073%=      5-min Rain = 0
KUM1 101033Z 25007KT M05/M09 A3031 RMK A01 T10481088  RH  073%=      5-min Rain = 0
KUM1 101034Z 25007KT M05/M09 A3032 RMK A01 T10481088  RH  073%=      5-min Rain = 0
KUM1 101035Z 25007KT M05/M09 A3031 RMK A01 T10491089  RH  074%=      5-min Rain = 0
KUM1 101036Z 25008KT M05/M09 A3031 RMK A01 T10501089  RH  074%=      5-min Rain = 0
KUM1 101037Z 25007KT M05/M09 A3031 RMK A01 T10521090  RH  075%=      5-min Rain = 0
KUM1 101038Z 25007KT M05/M09 A3032 RMK A01 T10531089  RH  076%=      5-min Rain = 0
KUM1 101039Z 26007KT M05/M09 A3032 RMK A01 T10541090  RH  076%=      5-min Rain = 0
KUM1 101040Z 25007KT M06/M09 A3032 RMK A01 T10561090  RH  076%=      5-min Rain = 0
KUM1 101041Z 25007KT M06/M09 A3032 RMK A01 T10561090  RH  077%=      5-min Rain = 0
KUM1 101042Z 25007KT M06/M09 A3032 RMK A01 T10551089  RH  077%=      5-min Rain = 0
KUM1 101043Z 25007KT M06/M09 A3031 RMK A01 T10551088  RH  077%=      5-min Rain = 0
KUM1 101044Z 25007KT M05/M09 A3031 RMK A01 T10541088  RH  077%=      5-min Rain = 0
KUM1 101045Z 25007KT M05/M09 A3031 RMK A01 T10541088  RH  077%=      5-min Rain = 0
KUM1 101046Z 25006KT M05/M09 A3031 RMK A01 T10541088  RH  077%=      5-min Rain = 0
KUM1 101047Z 25006KT M05/M09 A3031 RMK A01 T10531087  RH  077%=      5-min Rain = 0
KUM1 101048Z 25006KT M05/M09 A3032 RMK A01 T10531087  RH  077%=      5-min Rain = 0
KUM1 101049Z 25006KT M05/M09 A3032 RMK A01 T10541088  RH  077%=      5-min Rain = 0
KUM1 101050Z 25007KT M05/M09 A3032 RMK A01 T10541087  RH  078%=      5-min Rain = 0
KUM1 101051Z 25006KT M05/M09 A3032 RMK A01 T10541086  RH  079%=      5-min Rain = 0
KUM1 101052Z 25007KT M05/M09 A3031 RMK A01 T10541085  RH  079%=      5-min Rain = 0
KUM1 101053Z 25006KT M05/M09 A3031 RMK A01 T10541085  RH  079%=      5-min Rain = 0
KUM1 101054Z 25007KT M06/M09 A3031 RMK A01 T10551085  RH  079%=      5-min Rain = 0
KUM1 101055Z 25006KT M06/M09 A3031 RMK A01 T10551085  RH  079%=      5-min Rain = 0
KUM1 101056Z 25006KT M06/M09 A3031 RMK A01 T10551085  RH  080%=      5-min Rain = 0
KUM1 101057Z 25006KT M06/M08 A3031 RMK A01 T10551084  RH  080%=      5-min Rain = 0
KUM1 101058Z 25006KT M06/M08 A3031 RMK A01 T10551083  RH  081%=      5-min Rain = 0
KUM1 101059Z 25006KT M06/M08 A3031 RMK A01 T10551083  RH  081%=      5-min Rain = 0
KUM1 101100Z 25006KT M06/M08 A3031 RMK A01 T10551083  RH  081%=      5-min Rain = 0
KUM1 101101Z 25006KT M06/M08 A3031 RMK A01 T10551084  RH  080%=      5-min Rain = 0
KUM1 101102Z 25006KT M06/M08 A3031 RMK A01 T10551083  RH  081%=      5-min Rain = 0
KUM1 101103Z 25006KT M06/M08 A3031 RMK A01 T10561084  RH  080%=      5-min Rain = 0
KUM1 101104Z 25006KT M06/M09 A3031 RMK A01 T10571086  RH  080%=      5-min Rain = 0
KUM1 101105Z 25006KT M06/M09 A3031 RMK A01 T10591087  RH  080%=      5-min Rain = 0
KUM1 101106Z 25006KT M06/M09 A3031 RMK A01 T10601089  RH  080%=      5-min Rain = 0
KUM1 101107Z 25006KT M06/M09 A3031 RMK A01 T10611089  RH  081%=      5-min Rain = 0
KUM1 101108Z 25006KT M06/M09 A3031 RMK A01 T10631090  RH  081%=      5-min Rain = 0
KUM1 101109Z 25006KT M06/M09 A3031 RMK A01 T10631089  RH  082%=      5-min Rain = 0
KUM1 101110Z 26006KT M06/M09 A3031 RMK A01 T10641089  RH  083%=      5-min Rain = 0
KUM1 101111Z 26007KT M06/M09 A3031 RMK A01 T10641088  RH  083%=      5-min Rain = 0
KUM1 101112Z 26007KT M07/M09 A3031 RMK A01 T10651088  RH  083%=      5-min Rain = 0
KUM1 101113Z 27006KT M07/M09 A3031 RMK A01 T10661089  RH  084%=      5-min Rain = 0
KUM1 101114Z 27007KT M07/M09 A3031 RMK A01 T10671090  RH  084%=      5-min Rain = 0
KUM1 101115Z 26007KT M07/M09 A3031 RMK A01 T10681090  RH  084%=      5-min Rain = 0
KUM1 101116Z 26007KT M07/M09 A3031 RMK A01 T10681089  RH  085%=      5-min Rain = 0
KUM1 101117Z 26007KT M07/M09 A3031 RMK A01 T10671087  RH  086%=      5-min Rain = 0
KUM1 101118Z 27006KT M07/M08 A3031 RMK A01 T10651083  RH  087%=      5-min Rain = 0
KUM1 101119Z 27006KT M06/M08 A3031 RMK A01 T10631081  RH  087%=      5-min Rain = 0
KUM1 101120Z 27006KT M06/M08 A3031 RMK A01 T10621080  RH  087%=      5-min Rain = 0
KUM1 101121Z 26006KT M06/M08 A3031 RMK A01 T10611079  RH  087%=      5-min Rain = 0
KUM1 101122Z 26006KT M06/M08 A3031 RMK A01 T10601078  RH  087%=      5-min Rain = 0
KUM1 101123Z 26006KT M06/M08 A3031 RMK A01 T10591077  RH  087%=      5-min Rain = 0
KUM1 101124Z 27006KT M06/M08 A3031 RMK A01 T10581077  RH  087%=      5-min Rain = 0
KUM1 101125Z 27006KT M06/M08 A3031 RMK A01 T10571076  RH  087%=      5-min Rain = 0
KUM1 101126Z 26007KT M06/M08 A3031 RMK A01 T10571077  RH  086%=      5-min Rain = 0
KUM1 101127Z 26007KT M06/M08 A3031 RMK A01 T10571078  RH  085%=      5-min Rain = 0
KUM1 101128Z 26007KT M06/M08 A3031 RMK A01 T10571079  RH  085%=      5-min Rain = 0
KUM1 101129Z 26007KT M06/M08 A3031 RMK A01 T10561078  RH  085%=      5-min Rain = 0
KUM1 101130Z 25007KT M05/M08 A3031 RMK A01 T10541076  RH  085%=      5-min Rain = 0
KUM1 101131Z 26007KT M05/M08 A3031 RMK A01 T10541076  RH  084%=      5-min Rain = 0
KUM1 101132Z 25007KT M05/M08 A3031 RMK A01 T10531077  RH  083%=      5-min Rain = 0
KUM1 101133Z 26007KT M05/M08 A3031 RMK A01 T10531078  RH  083%=      5-min Rain = 0
KUM1 101134Z 26007KT M05/M08 A3031 RMK A01 T10541079  RH  083%=      5-min Rain = 0
KUM1 101135Z 26007KT M06/M08 A3031 RMK A01 T10551080  RH  082%=      5-min Rain = 0
KUM1 101136Z 25006KT M06/M08 A3031 RMK A01 T10561082  RH  082%=      5-min Rain = 0
KUM1 101137Z 25005KT M06/M08 A3031 RMK A01 T10571082  RH  083%=      5-min Rain = 0
KUM1 101138Z 24005KT M06/M08 A3031 RMK A01 T10571082  RH  083%=      5-min Rain = 0
KUM1 101139Z 24005KT M06/M08 A3032 RMK A01 T10591083  RH  083%=      5-min Rain = 0
KUM1 101140Z 24006KT M06/M08 A3032 RMK A01 T10591084  RH  083%=      5-min Rain = 0
KUM1 101141Z 25005KT M06/M09 A3032 RMK A01 T10611085  RH  083%=      5-min Rain = 0
KUM1 101142Z 25005KT M06/M09 A3032 RMK A01 T10621085  RH  083%=      5-min Rain = 0
KUM1 101143Z 25005KT M06/M09 A3032 RMK A01 T10621085  RH  084%=      5-min Rain = 0
KUM1 101144Z 25005KT M06/M09 A3032 RMK A01 T10621085  RH  084%=      5-min Rain = 0
KUM1 101145Z 24005KT M06/M08 A3032 RMK A01 T10621084  RH  084%=      5-min Rain = 0
KUM1 101146Z 25006KT M06/M08 A3032 RMK A01 T10621084  RH  084%=      5-min Rain = 0
KUM1 101147Z 25006KT M06/M08 A3032 RMK A01 T10621084  RH  084%=      5-min Rain = 0
KUM1 101148Z 24005KT M06/M08 A3032 RMK A01 T10621084  RH  084%=      5-min Rain = 0
KUM1 101149Z 24006KT M06/M09 A3032 RMK A01 T10621085  RH  084%=      5-min Rain = 0
KUM1 101150Z 25005KT M06/M09 A3032 RMK A01 T10621085  RH  084%=      5-min Rain = 0
KUM1 101151Z 25006KT M06/M09 A3032 RMK A01 T10621085  RH  084%=      5-min Rain = 0
KUM1 101152Z 25006KT M06/M09 A3032 RMK A01 T10621085  RH  084%=      5-min Rain = 0
KUM1 101153Z 25006KT M06/M09 A3032 RMK A01 T10621085  RH  084%=      5-min Rain = 0
KUM1 101154Z 25006KT M06/M09 A3032 RMK A01 T10621085  RH  084%=      5-min Rain = 0
KUM1 101155Z 25006KT M06/M08 A3032 RMK A01 T10621084  RH  084%=      5-min Rain = 0
KUM1 101156Z 25006KT M06/M08 A3032 RMK A01 T10611084  RH  084%=      5-min Rain = 0
KUM1 101157Z 25006KT M06/M08 A3032 RMK A01 T10611084  RH  084%=      5-min Rain = 0
KUM1 101158Z 25006KT M06/M08 A3032 RMK A01 T10601084  RH  084%=      5-min Rain = 0
KUM1 101159Z 25006KT M06/M08 A3032 RMK A01 T10601084  RH  083%=      5-min Rain = 0
KUM1 101200Z 25006KT M06/M08 A3032 RMK A01 T10601084  RH  083%=      5-min Rain = 0
KUM1 101201Z 25006KT M06/M09 A3032 RMK A01 T10601085  RH  083%=      5-min Rain = 0
KUM1 101202Z 25006KT M06/M09 A3032 RMK A01 T10601085  RH  082%=      5-min Rain = 0
KUM1 101203Z 26006KT M06/M09 A3032 RMK A01 T10601085  RH  082%=      5-min Rain = 0
KUM1 101204Z 25006KT M06/M09 A3032 RMK A01 T10601085  RH  082%=      5-min Rain = 0
KUM1 101205Z 25006KT M06/M09 A3032 RMK A01 T10601085  RH  083%=      5-min Rain = 0
KUM1 101206Z 26006KT M06/M08 A3032 RMK A01 T10591084  RH  083%=      5-min Rain = 0
KUM1 101207Z 26006KT M06/M09 A3032 RMK A01 T10591085  RH  082%=      5-min Rain = 0
KUM1 101208Z 25006KT M06/M09 A3032 RMK A01 T10591085  RH  082%=      5-min Rain = 0
KUM1 101209Z 25006KT M06/M09 A3032 RMK A01 T10591085  RH  082%=      5-min Rain = 0
KUM1 101210Z 25007KT M06/M09 A3032 RMK A01 T10591085  RH  082%=      5-min Rain = 0
KUM1 101211Z 25007KT M06/M08 A3032 RMK A01 T10591084  RH  082%=      5-min Rain = 0
KUM1 101212Z 25007KT M06/M08 A3032 RMK A01 T10581084  RH  082%=      5-min Rain = 0
KUM1 101213Z 25007KT M06/M08 A3032 RMK A01 T10581084  RH  082%=      5-min Rain = 0
KUM1 101214Z 25007KT M06/M08 A3031 RMK A01 T10581084  RH  082%=      5-min Rain = 0
KUM1 101215Z 25007KT M06/M08 A3031 RMK A01 T10581084  RH  082%=      5-min Rain = 0
KUM1 101216Z 24007KT M06/M08 A3031 RMK A01 T10581084  RH  082%=      5-min Rain = 0
KUM1 101217Z 24007KT M06/M08 A3031 RMK A01 T10571083  RH  082%=      5-min Rain = 0
KUM1 101218Z 24007KT M06/M08 A3031 RMK A01 T10571083  RH  082%=      5-min Rain = 0
KUM1 101219Z 24007KT M06/M08 A3031 RMK A01 T10571083  RH  082%=      5-min Rain = 0
KUM1 101220Z 24006KT M06/M08 A3032 RMK A01 T10571084  RH  082%=      5-min Rain = 0
KUM1 101221Z 24007KT M06/M08 A3032 RMK A01 T10571084  RH  082%=      5-min Rain = 0
KUM1 101222Z 23007KT M06/M08 A3032 RMK A01 T10571084  RH  082%=      5-min Rain = 0
KUM1 101223Z 23007KT M06/M08 A3032 RMK A01 T10581084  RH  082%=      5-min Rain = 0
KUM1 101224Z 24007KT M06/M08 A3032 RMK A01 T10581083  RH  082%=      5-min Rain = 0
KUM1 101225Z 23007KT M06/M08 A3031 RMK A01 T10581083  RH  082%=      5-min Rain = 0
KUM1 101226Z 24008KT M06/M08 A3031 RMK A01 T10581083  RH  082%=      5-min Rain = 0
KUM1 101227Z 24007KT M06/M08 A3031 RMK A01 T10581083  RH  082%=      5-min Rain = 0
KUM1 101228Z 24007KT M06/M08 A3031 RMK A01 T10581083  RH  082%=      5-min Rain = 0
KUM1 101229Z 24007KT M06/M08 A3031 RMK A01 T10581084  RH  082%=      5-min Rain = 0
KUM1 101230Z 24007KT M06/M08 A3031 RMK A01 T10581084  RH  082%=      5-min Rain = 0
KUM1 101231Z 24008KT M06/M08 A3031 RMK A01 T10591084  RH  083%=      5-min Rain = 0
KUM1 101232Z 23008KT M06/M08 A3031 RMK A01 T10591084  RH  083%=      5-min Rain = 0
KUM1 101233Z 23008KT M06/M08 A3031 RMK A01 T10591084  RH  083%=      5-min Rain = 0
KUM1 101234Z 23008KT M06/M08 A3031 RMK A01 T10591083  RH  083%=      5-min Rain = 0
KUM1 101235Z 23009KT M06/M08 A3031 RMK A01 T10591084  RH  083%=      5-min Rain = 0
KUM1 101236Z 23009KT M06/M08 A3031 RMK A01 T10591084  RH  083%=      5-min Rain = 0
KUM1 101237Z 23009KT M06/M08 A3031 RMK A01 T10591084  RH  083%=      5-min Rain = 0
KUM1 101238Z 23008KT M06/M08 A3031 RMK A01 T10591084  RH  083%=      5-min Rain = 0
KUM1 101239Z 23008KT M06/M08 A3031 RMK A01 T10591084  RH  083%=      5-min Rain = 0
KUM1 101240Z 23009KT M06/M08 A3031 RMK A01 T10581084  RH  082%=      5-min Rain = 0
KUM1 101241Z 23008KT M06/M08 A3031 RMK A01 T10581084  RH  082%=      5-min Rain = 0
KUM1 101242Z 23008KT M06/M08 A3031 RMK A01 T10581084  RH  082%=      5-min Rain = 0
KUM1 101243Z 23007KT M06/M08 A3031 RMK A01 T10581084  RH  082%=      5-min Rain = 0
KUM1 101244Z 23007KT M06/M09 A3031 RMK A01 T10581085  RH  082%=      5-min Rain = 0
KUM1 101245Z 22008KT M06/M09 A3031 RMK A01 T10581085  RH  081%=      5-min Rain = 0
KUM1 101246Z 22007KT M06/M09 A3031 RMK A01 T10591086  RH  081%=      5-min Rain = 0
KUM1 101247Z 22008KT M06/M09 A3031 RMK A01 T10601087  RH  081%=      5-min Rain = 0
KUM1 101248Z 22008KT M06/M09 A3031 RMK A01 T10601087  RH  081%=      5-min Rain = 0
KUM1 101249Z 23008KT M06/M09 A3032 RMK A01 T10601087  RH  082%=      5-min Rain = 0
KUM1 101250Z 23008KT M06/M09 A3032 RMK A01 T10601086  RH  082%=      5-min Rain = 0
KUM1 101251Z 23008KT M06/M09 A3032 RMK A01 T10601086  RH  082%=      5-min Rain = 0
KUM1 101252Z 22008KT M06/M09 A3032 RMK A01 T10591086  RH  082%=      5-min Rain = 0
KUM1 101253Z 22008KT M06/M09 A3032 RMK A01 T10591086  RH  081%=      5-min Rain = 0
KUM1 101254Z 22008KT M06/M09 A3032 RMK A01 T10601087  RH  081%=      5-min Rain = 0
KUM1 101255Z 22007KT M06/M09 A3032 RMK A01 T10611088  RH  081%=      5-min Rain = 0
KUM1 101256Z 23007KT M06/M09 A3032 RMK A01 T10621088  RH  082%=      5-min Rain = 0
KUM1 101257Z 23006KT M06/M09 A3032 RMK A01 T10621088  RH  082%=      5-min Rain = 0
KUM1 101258Z 23006KT M06/M09 A3032 RMK A01 T10631088  RH  082%=      5-min Rain = 0
KUM1 101259Z 23006KT M06/M09 A3032 RMK A01 T10631088  RH  082%=      5-min Rain = 0
KUM1 101300Z 23007KT M06/M09 A3032 RMK A01 T10631088  RH  082%=      5-min Rain = 0
KUM1 101301Z 23006KT M06/M09 A3033 RMK A01 T10631089  RH  082%=      5-min Rain = 0
KUM1 101302Z 23007KT M06/M09 A3033 RMK A01 T10631089  RH  082%=      5-min Rain = 0
KUM1 101303Z 23007KT M06/M09 A3033 RMK A01 T10631089  RH  082%=      5-min Rain = 0
KUM1 101304Z 23006KT M06/M09 A3033 RMK A01 T10631088  RH  083%=      5-min Rain = 0
KUM1 101305Z 23006KT M06/M09 A3033 RMK A01 T10631088  RH  082%=      5-min Rain = 0
KUM1 101306Z 23006KT M06/M09 A3033 RMK A01 T10631088  RH  082%=      5-min Rain = 0
KUM1 101307Z 23007KT M06/M09 A3033 RMK A01 T10631087  RH  083%=      5-min Rain = 0
KUM1 101308Z 23007KT M06/M09 A3033 RMK A01 T10621087  RH  083%=      5-min Rain = 0
KUM1 101309Z 23007KT M06/M09 A3033 RMK A01 T10621087  RH  083%=      5-min Rain = 0
KUM1 101310Z 23007KT M06/M09 A3033 RMK A01 T10621086  RH  083%=      5-min Rain = 0
KUM1 101311Z 23006KT M06/M09 A3033 RMK A01 T10621086  RH  083%=      5-min Rain = 0
KUM1 101312Z 23007KT M06/M09 A3033 RMK A01 T10611087  RH  082%=      5-min Rain = 0
KUM1 101313Z 23006KT M06/M09 A3033 RMK A01 T10621087  RH  082%=      5-min Rain = 0
KUM1 101314Z 23006KT M06/M09 A3033 RMK A01 T10621088  RH  082%=      5-min Rain = 0
KUM1 101315Z 23006KT M06/M09 A3033 RMK A01 T10631089  RH  082%=      5-min Rain = 0
KUM1 101316Z 23006KT M06/M09 A3033 RMK A01 T10631088  RH  082%=      5-min Rain = 0
KUM1 101317Z 23006KT M06/M09 A3033 RMK A01 T10631088  RH  082%=      5-min Rain = 0
KUM1 101318Z 23006KT M06/M09 A3033 RMK A01 T10631088  RH  082%=      5-min Rain = 0
KUM1 101319Z 23006KT M06/M09 A3033 RMK A01 T10631089  RH  082%=      5-min Rain = 0
KUM1 101320Z 23006KT M06/M09 A3033 RMK A01 T10641089  RH  082%=      5-min Rain = 0
KUM1 101321Z 23006KT M06/M09 A3033 RMK A01 T10641089  RH  082%=      5-min Rain = 0
KUM1 101322Z 23007KT M06/M09 A3033 RMK A01 T10641089  RH  083%=      5-min Rain = 0
KUM1 101323Z 23006KT M07/M09 A3033 RMK A01 T10651089  RH  083%=      5-min Rain = 0
KUM1 101324Z 23006KT M07/M09 A3033 RMK A01 T10651090  RH  083%=      5-min Rain = 0
KUM1 101325Z 23006KT M07/M09 A3033 RMK A01 T10661090  RH  083%=      5-min Rain = 0
KUM1 101326Z 23007KT M07/M09 A3033 RMK A01 T10661089  RH  083%=      5-min Rain = 0
KUM1 101327Z 23007KT M07/M09 A3033 RMK A01 T10661090  RH  083%=      5-min Rain = 0
KUM1 101328Z 23007KT M07/M09 A3033 RMK A01 T10661090  RH  083%=      5-min Rain = 0
KUM1 101329Z 23007KT M07/M09 A3033 RMK A01 T10651089  RH  083%=      5-min Rain = 0
KUM1 101330Z 23007KT M07/M09 A3033 RMK A01 T10651089  RH  083%=      5-min Rain = 0
KUM1 101331Z 23007KT M07/M09 A3033 RMK A01 T10661089  RH  083%=      5-min Rain = 0
KUM1 101332Z 23007KT M07/M09 A3033 RMK A01 T10661089  RH  083%=      5-min Rain = 0
KUM1 101333Z 23007KT M07/M09 A3033 RMK A01 T10661089  RH  084%=      5-min Rain = 0
KUM1 101334Z 23007KT M07/M09 A3033 RMK A01 T10661089  RH  084%=      5-min Rain = 0
KUM1 101335Z 23007KT M07/M09 A3033 RMK A01 T10661089  RH  084%=      5-min Rain = 0
KUM1 101336Z 23007KT M07/M09 A3033 RMK A01 T10661089  RH  084%=      5-min Rain = 0
KUM1 101337Z 23006KT M07/M09 A3034 RMK A01 T10661088  RH  084%=      5-min Rain = 0
KUM1 101338Z 23007KT M07/M09 A3034 RMK A01 T10661088  RH  084%=      5-min Rain = 0
KUM1 101339Z 23007KT M07/M09 A3034 RMK A01 T10661088  RH  084%=      5-min Rain = 0
KUM1 101340Z 23007KT M07/M09 A3034 RMK A01 T10661089  RH  084%=      5-min Rain = 0
KUM1 101341Z 23007KT M07/M09 A3034 RMK A01 T10661089  RH  084%=      5-min Rain = 0
KUM1 101342Z 23007KT M07/M09 A3034 RMK A01 T10661088  RH  084%=      5-min Rain = 0
KUM1 101343Z 23008KT M07/M09 A3034 RMK A01 T10661088  RH  084%=      5-min Rain = 0
KUM1 101344Z 24007KT M07/M09 A3034 RMK A01 T10661088  RH  084%=      5-min Rain = 0
KUM1 101345Z 24007KT M07/M09 A3034 RMK A01 T10661088  RH  084%=      5-min Rain = 0
KUM1 101346Z 24007KT M07/M09 A3034 RMK A01 T10661088  RH  084%=      5-min Rain = 0
KUM1 101347Z 24007KT M07/M09 A3034 RMK A01 T10661088  RH  084%=      5-min Rain = 0
KUM1 101348Z 24007KT M07/M09 A3034 RMK A01 T10661088  RH  084%=      5-min Rain = 0
KUM1 101349Z 24007KT M07/M09 A3034 RMK A01 T10661088  RH  084%=      5-min Rain = 0
KUM1 101350Z 24007KT M07/M09 A3034 RMK A01 T10661088  RH  084%=      5-min Rain = 0
KUM1 101351Z 24007KT M07/M09 A3034 RMK A01 T10661088  RH  084%=      5-min Rain = 0
KUM1 101352Z 24008KT M07/M09 A3034 RMK A01 T10661088  RH  084%=      5-min Rain = 0
KUM1 101353Z 24008KT M07/M09 A3034 RMK A01 T10661087  RH  084%=      5-min Rain = 0
KUM1 101354Z 24007KT M07/M09 A3034 RMK A01 T10651087  RH  085%=      5-min Rain = 0
KUM1 101355Z 24007KT M07/M09 A3034 RMK A01 T10651087  RH  085%=      5-min Rain = 0
KUM1 101356Z 24007KT M07/M09 A3034 RMK A01 T10651087  RH  084%=      5-min Rain = 0
KUM1 101357Z 24007KT M07/M09 A3034 RMK A01 T10651087  RH  084%=      5-min Rain = 0
KUM1 101358Z 24007KT M07/M09 A3034 RMK A01 T10651087  RH  084%=      5-min Rain = 0
KUM1 101359Z 24007KT M07/M09 A3034 RMK A01 T10651087  RH  084%=      5-min Rain = 0
KUM1 101400Z 24007KT M07/M09 A3034 RMK A01 T10651087  RH  084%=      5-min Rain = 0
KUM1 101401Z 24007KT M06/M09 A3034 RMK A01 T10641088  RH  084%=      5-min Rain = 0
KUM1 101402Z 24008KT M06/M09 A3034 RMK A01 T10641087  RH  083%=      5-min Rain = 0
KUM1 101403Z 24008KT M06/M09 A3034 RMK A01 T10631087  RH  083%=      5-min Rain = 0
KUM1 101404Z 24009KT M06/M09 A3034 RMK A01 T10631087  RH  083%=      5-min Rain = 0
KUM1 101405Z 24009KT M06/M09 A3034 RMK A01 T10631087  RH  083%=      5-min Rain = 0
KUM1 101406Z 24008KT M06/M09 A3034 RMK A01 T10621086  RH  083%=      5-min Rain = 0
KUM1 101407Z 24008KT M06/M09 A3034 RMK A01 T10611085  RH  083%=      5-min Rain = 0
KUM1 101408Z 24009KT M06/M09 A3034 RMK A01 T10601085  RH  083%=      5-min Rain = 0
KUM1 101409Z 24009KT M06/M08 A3034 RMK A01 T10591084  RH  083%=      5-min Rain = 0
KUM1 101410Z 24008KT M06/M08 A3034 RMK A01 T10581083  RH  082%=      5-min Rain = 0
KUM1 101411Z 24008KT M06/M08 A3034 RMK A01 T10571083  RH  082%=      5-min Rain = 0
KUM1 101412Z 24008KT M06/M08 A3034 RMK A01 T10551082  RH  082%=      5-min Rain = 0
KUM1 101413Z 24007KT M06/M08 A3034 RMK A01 T10551082  RH  081%=      5-min Rain = 0
KUM1 101414Z 24008KT M06/M08 A3034 RMK A01 T10551082  RH  081%=      5-min Rain = 0
KUM1 101415Z 24007KT M05/M08 A3034 RMK A01 T10541081  RH  081%=      5-min Rain = 0
KUM1 101416Z 25007KT M05/M08 A3034 RMK A01 T10531081  RH  081%=      5-min Rain = 0
KUM1 101417Z 25007KT M05/M08 A3034 RMK A01 T10531081  RH  081%=      5-min Rain = 0
KUM1 101418Z 25007KT M05/M08 A3034 RMK A01 T10531081  RH  081%=      5-min Rain = 0
KUM1 101419Z 25007KT M05/M08 A3034 RMK A01 T10531081  RH  080%=      5-min Rain = 0
KUM1 101420Z 25007KT M05/M08 A3034 RMK A01 T10531081  RH  080%=      5-min Rain = 0
KUM1 101421Z 25007KT M05/M08 A3034 RMK A01 T10521081  RH  080%=      5-min Rain = 0
KUM1 101422Z 25007KT M05/M08 A3034 RMK A01 T10521081  RH  081%=      5-min Rain = 0
KUM1 101423Z 25007KT M05/M08 A3034 RMK A01 T10521081  RH  081%=      5-min Rain = 0
KUM1 101424Z 26007KT M05/M08 A3034 RMK A01 T10531080  RH  081%=      5-min Rain = 0
KUM1 101425Z 26007KT M05/M08 A3034 RMK A01 T10531080  RH  081%=      5-min Rain = 0
KUM1 101426Z 26007KT M05/M08 A3034 RMK A01 T10531080  RH  081%=      5-min Rain = 0
KUM1 101427Z 25006KT M05/M08 A3034 RMK A01 T10531080  RH  081%=      5-min Rain = 0
KUM1 101428Z 25007KT M05/M08 A3034 RMK A01 T10531080  RH  081%=      5-min Rain = 0
KUM1 101429Z 25007KT M05/M08 A3034 RMK A01 T10531080  RH  081%=      5-min Rain = 0
KUM1 101430Z 25007KT M05/M08 A3034 RMK A01 T10521079  RH  081%=      5-min Rain = 0
KUM1 101431Z 25007KT M05/M08 A3034 RMK A01 T10521079  RH  081%=      5-min Rain = 0
KUM1 101432Z 25007KT M05/M08 A3034 RMK A01 T10511079  RH  081%=      5-min Rain = 0
KUM1 101433Z 25007KT M05/M08 A3034 RMK A01 T10511078  RH  081%=      5-min Rain = 0
KUM1 101434Z 25007KT M05/M08 A3034 RMK A01 T10511078  RH  081%=      5-min Rain = 0
KUM1 101435Z 25007KT M05/M08 A3034 RMK A01 T10511078  RH  081%=      5-min Rain = 0
KUM1 101436Z 25007KT M05/M08 A3034 RMK A01 T10501077  RH  081%=      5-min Rain = 0
KUM1 101437Z 25007KT M05/M08 A3034 RMK A01 T10501076  RH  082%=      5-min Rain = 0
KUM1 101438Z 25007KT M05/M08 A3034 RMK A01 T10491076  RH  082%=      5-min Rain = 0
KUM1 101439Z 25007KT M05/M08 A3034 RMK A01 T10491075  RH  082%=      5-min Rain = 0
KUM1 101440Z 25006KT M05/M08 A3034 RMK A01 T10481076  RH  081%=      5-min Rain = 0
KUM1 101441Z 24006KT M05/M08 A3034 RMK A01 T10481075  RH  081%=      5-min Rain = 0
KUM1 101442Z 25007KT M05/M07 A3034 RMK A01 T10471074  RH  081%=      5-min Rain = 0
KUM1 101443Z 25006KT M05/M07 A3034 RMK A01 T10461074  RH  081%=      5-min Rain = 0
KUM1 101444Z 25007KT M05/M07 A3034 RMK A01 T10451074  RH  080%=      5-min Rain = 0
KUM1 101445Z 25007KT M04/M07 A3034 RMK A01 T10441073  RH  080%=      5-min Rain = 0
KUM1 101446Z 25007KT M04/M07 A3034 RMK A01 T10431073  RH  080%=      5-min Rain = 0
KUM1 101447Z 24006KT M04/M07 A3034 RMK A01 T10421072  RH  080%=      5-min Rain = 0
KUM1 101448Z 24007KT M04/M07 A3034 RMK A01 T10421072  RH  080%=      5-min Rain = 0
KUM1 101449Z 23007KT M04/M07 A3034 RMK A01 T10421072  RH  080%=      5-min Rain = 0
KUM1 101450Z 23008KT M04/M07 A3034 RMK A01 T10411071  RH  080%=      5-min Rain = 0
KUM1 101451Z 24008KT M04/M07 A3034 RMK A01 T10411071  RH  080%=      5-min Rain = 0
KUM1 101452Z 23008KT M04/M07 A3034 RMK A01 T10401070  RH  080%=      5-min Rain = 0
KUM1 101453Z 23007KT M04/M07 A3034 RMK A01 T10391069  RH  080%=      5-min Rain = 0
KUM1 101454Z 24008KT M04/M07 A3034 RMK A01 T10381068  RH  079%=      5-min Rain = 0
KUM1 101455Z 23008KT M04/M07 A3034 RMK A01 T10371068  RH  079%=      5-min Rain = 0
KUM1 101456Z 23008KT M04/M07 A3034 RMK A01 T10361068  RH  079%=      5-min Rain = 0
KUM1 101457Z 23008KT M04/M07 A3035 RMK A01 T10351067  RH  078%=      5-min Rain = 0
KUM1 101458Z 24009KT M04/M07 A3034 RMK A01 T10351067  RH  078%=      5-min Rain = 0
KUM1 101459Z 23009KT M03/M07 A3035 RMK A01 T10341068  RH  078%=      5-min Rain = 0
KUM1 101500Z 23009KT M03/M07 A3035 RMK A01 T10341068  RH  077%=      5-min Rain = 0
KUM1 101501Z 24009KT M03/M07 A3035 RMK A01 T10341068  RH  077%=      5-min Rain = 0
KUM1 101502Z 24008KT M03/M07 A3035 RMK A01 T10331068  RH  077%=      5-min Rain = 0
KUM1 101503Z 24008KT M03/M07 A3035 RMK A01 T10321066  RH  077%=      5-min Rain = 0
KUM1 101504Z 24008KT M03/M07 A3035 RMK A01 T10301066  RH  077%=      5-min Rain = 0
KUM1 101505Z 24007KT M03/M07 A3035 RMK A01 T10291065  RH  076%=      5-min Rain = 0
KUM1 101506Z 24007KT M03/M06 A3035 RMK A01 T10281064  RH  076%=      5-min Rain = 0
KUM1 101507Z 24007KT M03/M06 A3035 RMK A01 T10261063  RH  076%=      5-min Rain = 0
KUM1 101508Z 24007KT M02/M06 A3035 RMK A01 T10241063  RH  075%=      5-min Rain = 0
KUM1 101509Z 24007KT M02/M06 A3035 RMK A01 T10231063  RH  074%=      5-min Rain = 0
KUM1 101510Z 25007KT M02/M06 A3035 RMK A01 T10221063  RH  073%=      5-min Rain = 0
KUM1 101511Z 25006KT M02/M06 A3035 RMK A01 T10211062  RH  073%=      5-min Rain = 0
KUM1 101512Z 26005KT M02/M06 A3035 RMK A01 T10191061  RH  073%=      5-min Rain = 0
KUM1 101513Z 26006KT M02/M06 A3035 RMK A01 T10171060  RH  073%=      5-min Rain = 0
KUM1 101514Z 26006KT M02/M06 A3035 RMK A01 T10151059  RH  072%=      5-min Rain = 0
KUM1 101515Z 27004KT M01/M06 A3035 RMK A01 T10121058  RH  071%=      5-min Rain = 0
KUM1 101516Z 26003KT M01/M06 A3035 RMK A01 T10111057  RH  071%=      5-min Rain = 0
KUM1 101517Z 26004KT M01/M06 A3035 RMK A01 T10091058  RH  070%=      5-min Rain = 0
KUM1 101518Z 26004KT M01/M06 A3035 RMK A01 T10081057  RH  069%=      5-min Rain = 0
KUM1 101519Z 26003KT M01/M06 A3035 RMK A01 T10061056  RH  069%=      5-min Rain = 0
KUM1 101520Z 25003KT M00/M05 A3035 RMK A01 T10041054  RH  069%=      5-min Rain = 0
KUM1 101521Z 25003KT M00/M06 A3035 RMK A01 T10021055  RH  067%=      5-min Rain = 0
KUM1 101522Z 25004KT 00/06 A3035 RMK A01 T00-00-55  RH  067%=      5-min Rain = 0
KUM1 101523Z 25003KT 00/M06 A3035 RMK A01 T00011056  RH  066%=      5-min Rain = 0
KUM1 101524Z 26003KT 00/M06 A3035 RMK A01 T00021055  RH  065%=      5-min Rain = 0
KUM1 101525Z 27002KT 00/M06 A3036 RMK A01 T00041055  RH  065%=      5-min Rain = 0
KUM1 101526Z 28003KT 01/M05 A3036 RMK A01 T00061054  RH  064%=      5-min Rain = 0
KUM1 101527Z 28004KT 01/M05 A3035 RMK A01 T00081053  RH  064%=      5-min Rain = 0
KUM1 101528Z 28004KT 01/M06 A3036 RMK A01 T00091055  RH  062%=      5-min Rain = 0
KUM1 101529Z 29004KT 01/M05 A3036 RMK A01 T00111054  RH  062%=      5-min Rain = 0
KUM1 101530Z 29005KT 01/M05 A3036 RMK A01 T00131054  RH  061%=      5-min Rain = 0
KUM1 101531Z 28005KT 02/M05 A3036 RMK A01 T00151053  RH  061%=      5-min Rain = 0
KUM1 101532Z 28006KT 02/M06 A3036 RMK A01 T00161055  RH  059%=      5-min Rain = 0
KUM1 101533Z 28006KT 02/M06 A3036 RMK A01 T00171056  RH  058%=      5-min Rain = 0
KUM1 101534Z 28006KT 02/M06 A3036 RMK A01 T00181056  RH  058%=      5-min Rain = 0
KUM1 101535Z 28006KT 02/M06 A3036 RMK A01 T00181056  RH  058%=      5-min Rain = 0
KUM1 101536Z 27006KT 02/M06 A3036 RMK A01 T00191056  RH  057%=      5-min Rain = 0
KUM1 101537Z 27006KT 02/M05 A3036 RMK A01 T00201053  RH  059%=      5-min Rain = 0
KUM1 101538Z 26006KT 02/M05 A3036 RMK A01 T00211052  RH  058%=      5-min Rain = 0
KUM1 101539Z 27006KT 02/M05 A3036 RMK A01 T00221053  RH  057%=      5-min Rain = 0
KUM1 101540Z 26005KT 02/M05 A3036 RMK A01 T00221054  RH  057%=      5-min Rain = 0
KUM1 101541Z 26005KT 02/M05 A3036 RMK A01 T00241051  RH  058%=      5-min Rain = 0
KUM1 101542Z 26005KT 03/M05 A3036 RMK A01 T00251050  RH  058%=      5-min Rain = 0
KUM1 101543Z 27006KT 03/M05 A3036 RMK A01 T00251051  RH  057%=      5-min Rain = 0
KUM1 101544Z 27005KT 03/M05 A3036 RMK A01 T00261053  RH  056%=      5-min Rain = 0
KUM1 101545Z 27005KT 03/M05 A3036 RMK A01 T00271052  RH  056%=      5-min Rain = 0
KUM1 101546Z 27006KT 03/M05 A3036 RMK A01 T00281050  RH  056%=      5-min Rain = 0
KUM1 101547Z 27006KT 03/M05 A3036 RMK A01 T00301049  RH  056%=      5-min Rain = 0
KUM1 101548Z 27007KT 03/M05 A3036 RMK A01 T00311049  RH  056%=      5-min Rain = 0
KUM1 101549Z 28006KT 03/M05 A3036 RMK A01 T00321048  RH  056%=      5-min Rain = 0
KUM1 101550Z 28006KT 03/M05 A3036 RMK A01 T00321049  RH  055%=      5-min Rain = 0
KUM1 101551Z 28006KT 03/M05 A3036 RMK A01 T00331049  RH  055%=      5-min Rain = 0
KUM1 101552Z 28007KT 03/M05 A3035 RMK A01 T00331051  RH  054%=      5-min Rain = 0
KUM1 101553Z 28006KT 03/M05 A3036 RMK A01 T00341049  RH  055%=      5-min Rain = 0
KUM1 101554Z 28005KT 04/M05 A3035 RMK A01 T00351048  RH  055%=      5-min Rain = 0
KUM1 101555Z 28005KT 04/M05 A3036 RMK A01 T00371046  RH  055%=      5-min Rain = 0
KUM1 101556Z 28005KT 04/M05 A3036 RMK A01 T00371047  RH  054%=      5-min Rain = 0
KUM1 101557Z 27005KT 04/M05 A3036 RMK A01 T00381045  RH  054%=      5-min Rain = 0
KUM1 101558Z 28005KT 04/M05 A3036 RMK A01 T00391047  RH  053%=      5-min Rain = 0
KUM1 101559Z 28005KT 04/M05 A3036 RMK A01 T00401047  RH  053%=      5-min Rain = 0
KUM1 101600Z 27005KT 04/M05 A3036 RMK A01 T00411046  RH  053%=      5-min Rain = 0
KUM1 101601Z 26005KT 04/M05 A3036 RMK A01 T00421045  RH  053%=      5-min Rain = 0
KUM1 101602Z 26005KT 04/M05 A3036 RMK A01 T00431045  RH  053%=      5-min Rain = 0
KUM1 101603Z 26006KT 04/M04 A3036 RMK A01 T00431044  RH  053%=      5-min Rain = 0
KUM1 101604Z 25006KT 04/M04 A3036 RMK A01 T00441044  RH  053%=      5-min Rain = 0
KUM1 101605Z 25005KT 05/M05 A3036 RMK A01 T00451045  RH  052%=      5-min Rain = 0
KUM1 101606Z 25005KT 05/M04 A3036 RMK A01 T00451044  RH  052%=      5-min Rain = 0
KUM1 101607Z 26006KT 05/M04 A3036 RMK A01 T00471041  RH  053%=      5-min Rain = 0
KUM1 101608Z 28007KT 05/M05 A3036 RMK A01 T00491045  RH  051%=      5-min Rain = 0
KUM1 101609Z 27006KT 05/M05 A3036 RMK A01 T00491047  RH  050%=      5-min Rain = 0
KUM1 101610Z 28006KT 05/M04 A3036 RMK A01 T00501044  RH  051%=      5-min Rain = 0
KUM1 101611Z 28006KT 05/M05 A3036 RMK A01 T00501045  RH  050%=      5-min Rain = 0
KUM1 101612Z 28006KT 05/M05 A3036 RMK A01 T00501045  RH  050%=      5-min Rain = 0
KUM1 101613Z 28007KT 05/M05 A3036 RMK A01 T00511045  RH  050%=      5-min Rain = 0
KUM1 101614Z 27006KT 05/M04 A3036 RMK A01 T00531043  RH  050%=      5-min Rain = 0
KUM1 101615Z 27006KT 06/M04 A3036 RMK A01 T00551042  RH  050%=      5-min Rain = 0
KUM1 101616Z 28006KT 06/M04 A3036 RMK A01 T00561042  RH  049%=      5-min Rain = 0
KUM1 101617Z 27007KT 06/M04 A3036 RMK A01 T00571044  RH  048%=      5-min Rain = 0
KUM1 101618Z 27007KT 06/M05 A3036 RMK A01 T00571048  RH  047%=      5-min Rain = 0
KUM1 101619Z 28007KT 06/M05 A3036 RMK A01 T00561048  RH  047%=      5-min Rain = 0
KUM1 101620Z 28008KT 06/M05 A3036 RMK A01 T00561048  RH  047%=      5-min Rain = 0
KUM1 101621Z 29008KT 06/M05 A3036 RMK A01 T00571046  RH  047%=      5-min Rain = 0
KUM1 101622Z 30007KT 06/M05 A3036 RMK A01 T00571047  RH  047%=      5-min Rain = 0
KUM1 101623Z 29006KT 06/M05 A3036 RMK A01 T00571047  RH  047%=      5-min Rain = 0
KUM1 101624Z 29006KT 06/M05 A3036 RMK A01 T00571045  RH  048%=      5-min Rain = 0
KUM1 101625Z 29006KT 06/M04 A3036 RMK A01 T00581041  RH  049%=      5-min Rain = 0
KUM1 101626Z 30006KT 06/M04 A3036 RMK A01 T00601042  RH  048%=      5-min Rain = 0
KUM1 101627Z 29005KT 06/M04 A3036 RMK A01 T00601040  RH  048%=      5-min Rain = 0
KUM1 101628Z 30006KT 06/M04 A3036 RMK A01 T00611040  RH  048%=      5-min Rain = 0
KUM1 101629Z 29005KT 06/M04 A3036 RMK A01 T00611040  RH  048%=      5-min Rain = 0
KUM1 101630Z 27005KT 06/M04 A3036 RMK A01 T00621038  RH  049%=      5-min Rain = 0
KUM1 101631Z 26006KT 06/M03 A3036 RMK A01 T00631033  RH  050%=      5-min Rain = 0
KUM1 101632Z 27005KT 06/M03 A3036 RMK A01 T00641034  RH  049%=      5-min Rain = 0
KUM1 101633Z 28006KT 06/M04 A3036 RMK A01 T00641035  RH  049%=      5-min Rain = 0
KUM1 101634Z 28006KT 06/M04 A3036 RMK A01 T00641035  RH  049%=      5-min Rain = 0
KUM1 101635Z 28006KT 06/M03 A3036 RMK A01 T00641034  RH  049%=      5-min Rain = 0
KUM1 101636Z 27006KT 06/M03 A3036 RMK A01 T00641034  RH  049%=      5-min Rain = 0
KUM1 101637Z 27006KT 06/M04 A3036 RMK A01 T00641035  RH  049%=      5-min Rain = 0
KUM1 101638Z 26006KT 06/M04 A3036 RMK A01 T00641036  RH  049%=      5-min Rain = 0
KUM1 101639Z 27006KT 07/M03 A3036 RMK A01 T00661031  RH  050%=      5-min Rain = 0
KUM1 101640Z 28006KT 07/M03 A3036 RMK A01 T00661034  RH  049%=      5-min Rain = 0
KUM1 101641Z 28008KT 07/M03 A3036 RMK A01 T00661033  RH  049%=      5-min Rain = 0
KUM1 101642Z 27007KT 07/M04 A3036 RMK A01 T00661035  RH  048%=      5-min Rain = 0
KUM1 101643Z 26008KT 07/M04 A3035 RMK A01 T00671035  RH  048%=      5-min Rain = 0
KUM1 101644Z 28007KT 07/M04 A3036 RMK A01 T00671035  RH  048%=      5-min Rain = 0
KUM1 101645Z 29008KT 07/M03 A3035 RMK A01 T00661034  RH  049%=      5-min Rain = 0
KUM1 101646Z 28007KT 07/M03 A3035 RMK A01 T00671034  RH  048%=      5-min Rain = 0
KUM1 101647Z 28005KT 07/M04 A3035 RMK A01 T00671036  RH  048%=      5-min Rain = 0
KUM1 101648Z 27007KT 07/M03 A3035 RMK A01 T00671034  RH  048%=      5-min Rain = 0
KUM1 101649Z 28007KT 07/M04 A3035 RMK A01 T00681035  RH  048%=      5-min Rain = 0
KUM1 101650Z 28007KT 07/M04 A3035 RMK A01 T00681035  RH  048%=      5-min Rain = 0
KUM1 101651Z 28006KT 07/M03 A3035 RMK A01 T00681032  RH  049%=      5-min Rain = 0
KUM1 101652Z 29007KT 07/M03 A3035 RMK A01 T00701031  RH  049%=      5-min Rain = 0
KUM1 101653Z 30007KT 07/M03 A3035 RMK A01 T00701034  RH  048%=      5-min Rain = 0
KUM1 101654Z 29006KT 07/M04 A3035 RMK A01 T00701036  RH  047%=      5-min Rain = 0
KUM1 101655Z 29006KT 07/M03 A3035 RMK A01 T00701030  RH  049%=      5-min Rain = 0
KUM1 101656Z 29007KT 07/M03 A3035 RMK A01 T00721029  RH  049%=      5-min Rain = 0
KUM1 101657Z 29007KT 07/M03 A3035 RMK A01 T00721032  RH  048%=      5-min Rain = 0
KUM1 101658Z 29007KT 07/M03 A3035 RMK A01 T00721031  RH  048%=      5-min Rain = 0
KUM1 101659Z 29005KT 07/M03 A3035 RMK A01 T00711032  RH  048%=      5-min Rain = 0
KUM1 101700Z 29005KT 07/M03 A3035 RMK A01 T00711033  RH  048%=      5-min Rain = 0
KUM1 101701Z 28007KT 07/M03 A3035 RMK A01 T00721030  RH  048%=      5-min Rain = 0
KUM1 101702Z 28006KT 07/M03 A3035 RMK A01 T00731029  RH  048%=      5-min Rain = 0
KUM1 101703Z 28007KT 07/M03 A3035 RMK A01 T00741029  RH  048%=      5-min Rain = 0
KUM1 101704Z 28007KT 07/M03 A3035 RMK A01 T00731030  RH  048%=      5-min Rain = 0
KUM1 101705Z 28006KT 07/M03 A3035 RMK A01 T00741028  RH  048%=      5-min Rain = 0
KUM1 101706Z 28006KT 08/M03 A3035 RMK A01 T00761025  RH  049%=      5-min Rain = 0
KUM1 101707Z 28005KT 08/M03 A3035 RMK A01 T00761028  RH  048%=      5-min Rain = 0
KUM1 101708Z 28004KT 08/M03 A3035 RMK A01 T00751032  RH  047%=      5-min Rain = 0
KUM1 101709Z 27003KT 07/M03 A3035 RMK A01 T00741029  RH  048%=      5-min Rain = 0
KUM1 101710Z 29005KT 08/M03 A3035 RMK A01 T00761028  RH  048%=      5-min Rain = 0
KUM1 101711Z 28004KT 08/M03 A3035 RMK A01 T00761030  RH  047%=      5-min Rain = 0
KUM1 101712Z 28005KT 08/M02 A3035 RMK A01 T00771024  RH  049%=      5-min Rain = 0
KUM1 101713Z 27004KT 08/M03 A3035 RMK A01 T00781025  RH  048%=      5-min Rain = 0
KUM1 101714Z 25004KT 08/M03 A3035 RMK A01 T00781027  RH  047%=      5-min Rain = 0
KUM1 101715Z 27005KT 08/M03 A3034 RMK A01 T00791026  RH  048%=      5-min Rain = 0
KUM1 101716Z 28006KT 08/M02 A3035 RMK A01 T00811019  RH  049%=      5-min Rain = 0
KUM1 101717Z 30006KT 08/M03 A3034 RMK A01 T00811025  RH  047%=      5-min Rain = 0
KUM1 101718Z 29005KT 08/M03 A3034 RMK A01 T00811025  RH  047%=      5-min Rain = 0
KUM1 101719Z 29005KT 08/M03 A3034 RMK A01 T00801028  RH  046%=      5-min Rain = 0
KUM1 101720Z 26006KT 08/M02 A3034 RMK A01 T00801024  RH  048%=      5-min Rain = 0
KUM1 101721Z 26006KT 08/M03 A3034 RMK A01 T00801026  RH  047%=      5-min Rain = 0
KUM1 101722Z 25006KT 08/M03 A3034 RMK A01 T00801027  RH  047%=      5-min Rain = 0
KUM1 101723Z 27006KT 08/M03 A3034 RMK A01 T00791027  RH  047%=      5-min Rain = 0
KUM1 101724Z 27006KT 08/M03 A3034 RMK A01 T00791026  RH  047%=      5-min Rain = 0
KUM1 101725Z 26006KT 08/M03 A3034 RMK A01 T00801025  RH  047%=      5-min Rain = 0
KUM1 101726Z 27005KT 08/M03 A3034 RMK A01 T00801026  RH  047%=      5-min Rain = 0
KUM1 101727Z 27005KT 08/M03 A3034 RMK A01 T00801025  RH  047%=      5-min Rain = 0
KUM1 101728Z 27006KT 08/M02 A3034 RMK A01 T00811022  RH  048%=      5-min Rain = 0
KUM1 101729Z 28005KT 08/M03 A3034 RMK A01 T00821025  RH  047%=      5-min Rain = 0
KUM1 101730Z 28003KT 08/M03 A3034 RMK A01 T00811026  RH  047%=      5-min Rain = 0
KUM1 101731Z 28005KT 08/M02 A3034 RMK A01 T00811024  RH  047%=      5-min Rain = 0
KUM1 101732Z 29005KT 08/M02 A3034 RMK A01 T00821024  RH  047%=      5-min Rain = 0
KUM1 101733Z 28007KT 08/M02 A3034 RMK A01 T00841021  RH  048%=      5-min Rain = 0
KUM1 101734Z 27006KT 08/M02 A3034 RMK A01 T00841023  RH  047%=      5-min Rain = 0
KUM1 101735Z 28004KT 08/M02 A3034 RMK A01 T00841023  RH  047%=      5-min Rain = 0
KUM1 101736Z 24004KT 08/M02 A3034 RMK A01 T00841021  RH  047%=      5-min Rain = 0
KUM1 101737Z 25005KT 09/M02 A3034 RMK A01 T00851022  RH  047%=      5-min Rain = 0
KUM1 101738Z 26006KT 09/M02 A3034 RMK A01 T00861022  RH  047%=      5-min Rain = 0
KUM1 101739Z 27005KT 09/M02 A3034 RMK A01 T00861021  RH  047%=      5-min Rain = 0
KUM1 101740Z 28005KT 09/M01 A3034 RMK A01 T00881013  RH  049%=      5-min Rain = 0
KUM1 101741Z 28007KT 09/M02 A3034 RMK A01 T00911016  RH  047%=      5-min Rain = 0
KUM1 101742Z 28007KT 09/M02 A3033 RMK A01 T00891022  RH  045%=      5-min Rain = 0
KUM1 101743Z 29008KT 09/M02 A3033 RMK A01 T00881022  RH  046%=      5-min Rain = 0
KUM1 101744Z 29008KT 09/M02 A3033 RMK A01 T00881022  RH  046%=      5-min Rain = 0
KUM1 101745Z 30006KT 09/M02 A3033 RMK A01 T00871022  RH  046%=      5-min Rain = 0
KUM1 101746Z 30006KT 09/M02 A3033 RMK A01 T00871023  RH  046%=      5-min Rain = 0
KUM1 101747Z 28005KT 09/M02 A3033 RMK A01 T00861024  RH  046%=      5-min Rain = 0
KUM1 101748Z 29002KT 09/M02 A3033 RMK A01 T00851024  RH  046%=      5-min Rain = 0
KUM1 101749Z 27006KT 09/M02 A3033 RMK A01 T00851023  RH  047%=      5-min Rain = 0
KUM1 101750Z 28007KT 09/M02 A3033 RMK A01 T00861021  RH  047%=      5-min Rain = 0
KUM1 101751Z 29006KT 09/M02 A3033 RMK A01 T00871019  RH  047%=      5-min Rain = 0
KUM1 101752Z 28006KT 09/M02 A3033 RMK A01 T00881021  RH  046%=      5-min Rain = 0
KUM1 101753Z 27004KT 09/M02 A3033 RMK A01 T00881021  RH  046%=      5-min Rain = 0
KUM1 101754Z 28005KT 09/M02 A3033 RMK A01 T00881019  RH  047%=      5-min Rain = 0
KUM1 101755Z 27005KT 09/M02 A3033 RMK A01 T00901015  RH  048%=      5-min Rain = 0
KUM1 101756Z 26003KT 09/M02 A3033 RMK A01 T00901020  RH  046%=      5-min Rain = 0
KUM1 101757Z 28005KT 09/M02 A3032 RMK A01 T00911015  RH  048%=      5-min Rain = 0
KUM1 101758Z 27007KT 09/M01 A3032 RMK A01 T00921014  RH  047%=      5-min Rain = 0
KUM1 101759Z 27004KT 09/M02 A3032 RMK A01 T00911021  RH  045%=      5-min Rain = 0
KUM1 101800Z 29004KT 09/M02 A3032 RMK A01 T00901022  RH  045%=      5-min Rain = 0
KUM1 101801Z 27004KT 09/M02 A3032 RMK A01 T00901018  RH  047%=      5-min Rain = 0
KUM1 101802Z 26005KT 09/M02 A3032 RMK A01 T00901019  RH  046%=      5-min Rain = 0
KUM1 101803Z 26006KT 09/M02 A3032 RMK A01 T00911018  RH  046%=      5-min Rain = 0
KUM1 101804Z 26003KT 09/M02 A3032 RMK A01 T00911018  RH  046%=      5-min Rain = 0
KUM1 101805Z 26005KT 09/M02 A3032 RMK A01 T00921015  RH  047%=      5-min Rain = 0
KUM1 101806Z 25008KT 09/M02 A3032 RMK A01 T00931017  RH  046%=      5-min Rain = 0
KUM1 101807Z 26007KT 09/M02 A3032 RMK A01 T00931020  RH  045%=      5-min Rain = 0
KUM1 101808Z 26005KT 09/M02 A3032 RMK A01 T00911022  RH  045%=      5-min Rain = 0
KUM1 101809Z 28005KT 09/M02 A3032 RMK A01 T00911017  RH  047%=      5-min Rain = 0
KUM1 101810Z 27006KT 09/M02 A3032 RMK A01 T00931015  RH  047%=      5-min Rain = 0
KUM1 101811Z 27006KT 09/M02 A3031 RMK A01 T00941018  RH  045%=      5-min Rain = 0
KUM1 101812Z 26005KT 09/M02 A3031 RMK A01 T00941017  RH  046%=      5-min Rain = 0
KUM1 101813Z 26005KT 09/M01 A3031 RMK A01 T00941014  RH  047%=      5-min Rain = 0
KUM1 101814Z 27005KT 10/M02 A3031 RMK A01 T00951018  RH  045%=      5-min Rain = 0
KUM1 101815Z 27005KT 10/M02 A3031 RMK A01 T00951015  RH  046%=      5-min Rain = 0
KUM1 101816Z 28006KT 10/M01 A3031 RMK A01 T00971012  RH  047%=      5-min Rain = 0
KUM1 101817Z 29006KT 10/M01 A3031 RMK A01 T00971014  RH  046%=      5-min Rain = 0
KUM1 101818Z 29008KT 10/M01 A3031 RMK A01 T00981009  RH  047%=      5-min Rain = 0
KUM1 101819Z 29009KT 10/M01 A3031 RMK A01 T00991012  RH  046%=      5-min Rain = 0
KUM1 101820Z 28009KT 10/M01 A3031 RMK A01 T00991013  RH  046%=      5-min Rain = 0
KUM1 101821Z 28008KT 10/M01 A3031 RMK A01 T00991014  RH  045%=      5-min Rain = 0
KUM1 101822Z 29005KT 10/M01 A3031 RMK A01 T00981014  RH  045%=      5-min Rain = 0
KUM1 101823Z 28006KT 10/M01 A3031 RMK A01 T00981014  RH  046%=      5-min Rain = 0
KUM1 101824Z 26007KT 10/M01 A3031 RMK A01 T00991011  RH  046%=      5-min Rain = 0
KUM1 101825Z 26006KT 10/M02 A3031 RMK A01 T00991016  RH  044%=      5-min Rain = 0
KUM1 101826Z 26007KT 10/M01 A3031 RMK A01 T00991014  RH  045%=      5-min Rain = 0
KUM1 101827Z 24008KT 10/M01 A3031 RMK A01 T01011012  RH  045%=      5-min Rain = 0
KUM1 101828Z 25007KT 10/M02 A3031 RMK A01 T01011016  RH  044%=      5-min Rain = 0
KUM1 101829Z 26007KT 10/M02 A3031 RMK A01 T00991020  RH  043%=      5-min Rain = 0
KUM1 101830Z 26006KT 10/M02 A3031 RMK A01 T00981016  RH  045%=      5-min Rain = 0
KUM1 101831Z 26008KT 10/M02 A303 RMK A01 T00991015  RH  045%=      5-min Rain = 0
KUM1 101832Z 26008KT 10/M02 A303 RMK A01 T01001015  RH  045%=      5-min Rain = 0
KUM1 101833Z 28006KT 10/M02 A303 RMK A01 T01001017  RH  044%=      5-min Rain = 0
KUM1 101834Z 25006KT 10/M01 A303 RMK A01 T01001014  RH  045%=      5-min Rain = 0
KUM1 101835Z 27006KT 10/M02 A303 RMK A01 T01011015  RH  044%=      5-min Rain = 0
KUM1 101836Z 27007KT 10/M02 A303 RMK A01 T01021015  RH  044%=      5-min Rain = 0
KUM1 101837Z 27006KT 10/M02 A303 RMK A01 T01021017  RH  044%=      5-min Rain = 0
KUM1 101838Z 27007KT 10/M02 A303 RMK A01 T01021016  RH  044%=      5-min Rain = 0
KUM1 101839Z 28008KT 10/M02 A303 RMK A01 T01021018  RH  043%=      5-min Rain = 0
KUM1 101840Z 27006KT 10/M02 A303 RMK A01 T01021020  RH  043%=      5-min Rain = 0
KUM1 101841Z 25005KT 10/M02 A303 RMK A01 T01011017  RH  044%=      5-min Rain = 0
KUM1 101842Z 26009KT 10/M01 A303 RMK A01 T01031011  RH  045%=      5-min Rain = 0
KUM1 101843Z 26008KT 10/M02 A303 RMK A01 T01041015  RH  043%=      5-min Rain = 0
KUM1 101844Z 26007KT 11/M02 A303 RMK A01 T01051016  RH  043%=      5-min Rain = 0
KUM1 101845Z 27006KT 11/M02 A303 RMK A01 T01051018  RH  042%=      5-min Rain = 0
KUM1 101846Z 27006KT 10/M02 A303 RMK A01 T01031020  RH  042%=      5-min Rain = 0
KUM1 101847Z 27005KT 10/M02 A3029 RMK A01 T01041016  RH  043%=      5-min Rain = 0
KUM1 101848Z 25004KT 11/M01 A3029 RMK A01 T01051012  RH  044%=      5-min Rain = 0
KUM1 101849Z 28007KT 11/M01 A3029 RMK A01 T01071012  RH  044%=      5-min Rain = 0
KUM1 101850Z 28007KT 11/M02 A3029 RMK A01 T01061020  RH  041%=      5-min Rain = 0
KUM1 101851Z 27009KT 11/M02 A3029 RMK A01 T01051018  RH  042%=      5-min Rain = 0
KUM1 101852Z 27008KT 11/M02 A3029 RMK A01 T01051018  RH  042%=      5-min Rain = 0
KUM1 101853Z 28007KT 10/M02 A3029 RMK A01 T01041019  RH  042%=      5-min Rain = 0
KUM1 101854Z 29005KT 10/M02 A3029 RMK A01 T01031017  RH  043%=      5-min Rain = 0
KUM1 101855Z 30006KT 10/M02 A3029 RMK A01 T01041020  RH  042%=      5-min Rain = 0
KUM1 101856Z 28008KT 10/M02 A3029 RMK A01 T01041021  RH  041%=      5-min Rain = 0
KUM1 101857Z 28007KT 11/M02 A3029 RMK A01 T01051018  RH  042%=      5-min Rain = 0
KUM1 101858Z 28007KT 11/M02 A3029 RMK A01 T01051018  RH  042%=      5-min Rain = 0
KUM1 101859Z 28006KT 11/M02 A3029 RMK A01 T01051019  RH  042%=      5-min Rain = 0
KUM1 101900Z 28005KT 11/M02 A3029 RMK A01 T01051020  RH  042%=      5-min Rain = 0
KUM1 101901Z 28006KT 11/M02 A3029 RMK A01 T01051015  RH  043%=      5-min Rain = 0
KUM1 101902Z 28008KT 11/M02 A3029 RMK A01 T01071020  RH  041%=      5-min Rain = 0
KUM1 101903Z 28004KT 11/M03 A3029 RMK A01 T01061027  RH  039%=      5-min Rain = 0
KUM1 101904Z 26006KT 11/M03 A3029 RMK A01 T01061030  RH  038%=      5-min Rain = 0
KUM1 101905Z 28007KT 11/M02 A3029 RMK A01 T01071021  RH  041%=      5-min Rain = 0
KUM1 101906Z 27006KT 11/M02 A3029 RMK A01 T01081024  RH  040%=      5-min Rain = 0
KUM1 101907Z 28006KT 11/M02 A3029 RMK A01 T01071024  RH  040%=      5-min Rain = 0
KUM1 101908Z 26005KT 11/M02 A3029 RMK A01 T01071023  RH  040%=      5-min Rain = 0
KUM1 101909Z 28003KT 11/M02 A3028 RMK A01 T01081024  RH  040%=      5-min Rain = 0
KUM1 101910Z 28005KT 11/M02 A3028 RMK A01 T01081021  RH  040%=      5-min Rain = 0
KUM1 101911Z 27006KT 11/M03 A3028 RMK A01 T01081025  RH  039%=      5-min Rain = 0
KUM1 101912Z 27007KT 11/M02 A3028 RMK A01 T01081024  RH  039%=      5-min Rain = 0
KUM1 101913Z 28005KT 11/M02 A3028 RMK A01 T01091023  RH  040%=      5-min Rain = 0
KUM1 101914Z 26006KT 11/M02 A3028 RMK A01 T01101020  RH  040%=      5-min Rain = 0
KUM1 101915Z 28006KT 11/M02 A3028 RMK A01 T01101024  RH  039%=      5-min Rain = 0
KUM1 101916Z 29004KT 11/M02 A3028 RMK A01 T01101024  RH  039%=      5-min Rain = 0
KUM1 101917Z 30006KT 11/M02 A3028 RMK A01 T01101021  RH  040%=      5-min Rain = 0
KUM1 101918Z 32005KT 11/M03 A3028 RMK A01 T01091025  RH  039%=      5-min Rain = 0
KUM1 101919Z 32004KT 11/M03 A3028 RMK A01 T01081025  RH  039%=      5-min Rain = 0
KUM1 101920Z 34002KT 11/M03 A3028 RMK A01 T01071029  RH  038%=      5-min Rain = 0
KUM1 101921Z 31005KT 11/M02 A3028 RMK A01 T01081022  RH  040%=      5-min Rain = 0
KUM1 101922Z 25007KT 11/M02 A3028 RMK A01 T01101023  RH  039%=      5-min Rain = 0
KUM1 101923Z 24006KT 11/M03 A3028 RMK A01 T01101027  RH  038%=      5-min Rain = 0
KUM1 101924Z 25006KT 11/M03 A3028 RMK A01 T01111027  RH  038%=      5-min Rain = 0
KUM1 101925Z 24004KT 11/M03 A3028 RMK A01 T01101030  RH  037%=      5-min Rain = 0
KUM1 101926Z 26004KT 11/M02 A3028 RMK A01 T01111024  RH  039%=      5-min Rain = 0
KUM1 101927Z 29005KT 11/M02 A3028 RMK A01 T01131021  RH  039%=      5-min Rain = 0
KUM1 101928Z 29005KT 11/M03 A3028 RMK A01 T01141030  RH  037%=      5-min Rain = 0
KUM1 101929Z 30004KT 11/M03 A3027 RMK A01 T01121031  RH  036%=      5-min Rain = 0
KUM1 101930Z 29003KT 11/M03 A3027 RMK A01 T01111031  RH  037%=      5-min Rain = 0
KUM1 101931Z 29006KT 11/M03 A3027 RMK A01 T01101029  RH  038%=      5-min Rain = 0
KUM1 101932Z 29007KT 11/M03 A3027 RMK A01 T01111028  RH  038%=      5-min Rain = 0
KUM1 101933Z 28007KT 11/M03 A3027 RMK A01 T01121025  RH  038%=      5-min Rain = 0
KUM1 101934Z 30005KT 11/M03 A3027 RMK A01 T01121025  RH  038%=      5-min Rain = 0
KUM1 101935Z 29006KT 11/M02 A3027 RMK A01 T01131024  RH  038%=      5-min Rain = 0
KUM1 101936Z 29007KT 11/M02 A3027 RMK A01 T01131022  RH  039%=      5-min Rain = 0
KUM1 101937Z 28005KT 11/M02 A3027 RMK A01 T01141021  RH  039%=      5-min Rain = 0
KUM1 101938Z 27003KT 11/M03 A3027 RMK A01 T01141026  RH  037%=      5-min Rain = 0
KUM1 101939Z 30003KT 12/M02 A3027 RMK A01 T01151020  RH  039%=      5-min Rain = 0
KUM1 101940Z 28005KT 12/M01 A3027 RMK A01 T01171014  RH  040%=      5-min Rain = 0
KUM1 101941Z 27004KT 12/M02 A3027 RMK A01 T01171021  RH  038%=      5-min Rain = 0
KUM1 101942Z 26002KT 12/M03 A3027 RMK A01 T01151029  RH  037%=      5-min Rain = 0
KUM1 101943Z 24001KT 11/M03 A3027 RMK A01 T01131025  RH  038%=      5-min Rain = 0
KUM1 101944Z 25004KT 12/M02 A3027 RMK A01 T01161023  RH  038%=      5-min Rain = 0
KUM1 101945Z 27005KT 12/M01 A3027 RMK A01 T01181014  RH  040%=      5-min Rain = 0
KUM1 101946Z 27005KT 12/M02 A3027 RMK A01 T01191019  RH  038%=      5-min Rain = 0
KUM1 101947Z 26006KT 12/M03 A3027 RMK A01 T01161025  RH  037%=      5-min Rain = 0
KUM1 101948Z 26004KT 11/M03 A3027 RMK A01 T01141026  RH  037%=      5-min Rain = 0
KUM1 101949Z 26003KT 11/M03 A3027 RMK A01 T01141025  RH  038%=      5-min Rain = 0
KUM1 101950Z 23002KT 11/M02 A3027 RMK A01 T01141022  RH  039%=      5-min Rain = 0
KUM1 101951Z 23002KT 12/M02 A3027 RMK A01 T01151021  RH  039%=      5-min Rain = 0
KUM1 101952Z 23004KT 12/M02 A3027 RMK A01 T01161021  RH  038%=      5-min Rain = 0
KUM1 101953Z 23004KT 12/M02 A3027 RMK A01 T01171022  RH  038%=      5-min Rain = 0
KUM1 101954Z 25005KT 12/M02 A3027 RMK A01 T01181019  RH  039%=      5-min Rain = 0
KUM1 101955Z 25004KT 12/M02 A3027 RMK A01 T01181018  RH  039%=      5-min Rain = 0
KUM1 101956Z 26005KT 12/M02 A3027 RMK A01 T01181020  RH  038%=      5-min Rain = 0
KUM1 101957Z 25008KT 12/M03 A3027 RMK A01 T01181026  RH  036%=      5-min Rain = 0
KUM1 101958Z 26008KT 12/M03 A3027 RMK A01 T01181031  RH  035%=      5-min Rain = 0
KUM1 101959Z 25006KT 12/M03 A3027 RMK A01 T01191031  RH  035%=      5-min Rain = 0
KUM1 102000Z 22004KT 12/M04 A3027 RMK A01 T01191036  RH  034%=      5-min Rain = 0
KUM1 102001Z 23004KT 12/M03 A3027 RMK A01 T01181032  RH  035%=      5-min Rain = 0
KUM1 102002Z 22006KT 12/M03 A3026 RMK A01 T01201029  RH  035%=      5-min Rain = 0
KUM1 102003Z 22005KT 12/M04 A3026 RMK A01 T01191038  RH  033%=      5-min Rain = 0
KUM1 102004Z 24004KT 12/M04 A3026 RMK A01 T01191035  RH  034%=      5-min Rain = 0
KUM1 102005Z 24003KT 12/M03 A3026 RMK A01 T01201031  RH  035%=      5-min Rain = 0
KUM1 102006Z 25005KT 12/M03 A3026 RMK A01 T01201026  RH  036%=      5-min Rain = 0
KUM1 102007Z 25008KT 12/M03 A3026 RMK A01 T01211031  RH  035%=      5-min Rain = 0
KUM1 102008Z 26006KT 12/M03 A3026 RMK A01 T01211032  RH  034%=      5-min Rain = 0
KUM1 102009Z 27008KT 12/M03 A3026 RMK A01 T01221034  RH  033%=      5-min Rain = 0
KUM1 102010Z 26006KT 12/M03 A3026 RMK A01 T01221031  RH  034%=      5-min Rain = 0
KUM1 102011Z 23004KT 12/M04 A3026 RMK A01 T01221037  RH  033%=      5-min Rain = 0
KUM1 102012Z 26004KT 12/M04 A3026 RMK A01 T01221036  RH  033%=      5-min Rain = 0
KUM1 102013Z 28004KT 12/M04 A3026 RMK A01 T01221036  RH  033%=      5-min Rain = 0
KUM1 102014Z 25006KT 12/M04 A3026 RMK A01 T01221035  RH  033%=      5-min Rain = 0
KUM1 102015Z 24008KT 12/M04 A3026 RMK A01 T01231038  RH  032%=      5-min Rain = 0
KUM1 102016Z 25008KT 12/M04 A3026 RMK A01 T01221038  RH  032%=      5-min Rain = 0
KUM1 102017Z 24007KT 12/M03 A3025 RMK A01 T01231033  RH  034%=      5-min Rain = 0
KUM1 102018Z 25007KT 12/M04 A3025 RMK A01 T01231038  RH  032%=      5-min Rain = 0
KUM1 102019Z 24007KT 12/M03 A3025 RMK A01 T01231034  RH  033%=      5-min Rain = 0
KUM1 102020Z 23008KT 12/M04 A3025 RMK A01 T01231040  RH  032%=      5-min Rain = 0
KUM1 102021Z 23005KT 12/M04 A3025 RMK A01 T01231037  RH  033%=      5-min Rain = 0
KUM1 102022Z 22005KT 12/M04 A3025 RMK A01 T01231037  RH  032%=      5-min Rain = 0
KUM1 102023Z 23005KT 12/M04 A3025 RMK A01 T01241041  RH  031%=      5-min Rain = 0
KUM1 102024Z 24006KT 12/M04 A3025 RMK A01 T01241036  RH  032%=      5-min Rain = 0
KUM1 102025Z 27006KT 13/M03 A3025 RMK A01 T01261034  RH  033%=      5-min Rain = 0
KUM1 102026Z 29005KT 13/M04 A3025 RMK A01 T01261035  RH  032%=      5-min Rain = 0
KUM1 102027Z 25005KT 13/M04 A3025 RMK A01 T01261038  RH  032%=      5-min Rain = 0
KUM1 102028Z 27007KT 13/M04 A3025 RMK A01 T01261035  RH  033%=      5-min Rain = 0
KUM1 102029Z 26006KT 13/M04 A3025 RMK A01 T01251037  RH  032%=      5-min Rain = 0
KUM1 102030Z 25005KT 12/M04 A3025 RMK A01 T01241038  RH  032%=      5-min Rain = 0
KUM1 102031Z 25005KT 12/M04 A3025 RMK A01 T01231039  RH  032%=      5-min Rain = 0
KUM1 102032Z 25003KT 12/M04 A3025 RMK A01 T01231037  RH  032%=      5-min Rain = 0
KUM1 102033Z 25004KT 12/M03 A3025 RMK A01 T01231033  RH  034%=      5-min Rain = 0
KUM1 102034Z 26004KT 12/M04 A3025 RMK A01 T01241035  RH  033%=      5-min Rain = 0
KUM1 102035Z 27004KT 12/M04 A3025 RMK A01 T01241040  RH  032%=      5-min Rain = 0
KUM1 102036Z 27002KT 12/M04 A3025 RMK A01 T01231040  RH  032%=      5-min Rain = 0
KUM1 102037Z 24003KT 12/M04 A3025 RMK A01 T01241036  RH  033%=      5-min Rain = 0
KUM1 102038Z 24006KT 13/M03 A3025 RMK A01 T01261033  RH  033%=      5-min Rain = 0
KUM1 102039Z 23005KT 13/M04 A3025 RMK A01 T01271041  RH  031%=      5-min Rain = 0
KUM1 102040Z 25007KT 13/M04 A3025 RMK A01 T01261035  RH  032%=      5-min Rain = 0
KUM1 102041Z 24008KT 13/M03 A3025 RMK A01 T01261031  RH  033%=      5-min Rain = 0
KUM1 102042Z 25009KT 13/M03 A3025 RMK A01 T01261030  RH  034%=      5-min Rain = 0
KUM1 102043Z 26008KT 13/M03 A3025 RMK A01 T01271028  RH  034%=      5-min Rain = 0
KUM1 102044Z 24008KT 13/M03 A3025 RMK A01 T01271031  RH  033%=      5-min Rain = 0
KUM1 102045Z 27006KT 13/M03 A3025 RMK A01 T01261031  RH  033%=      5-min Rain = 0
KUM1 102046Z 28004KT 13/M03 A3025 RMK A01 T01251034  RH  033%=      5-min Rain = 0
KUM1 102047Z 27004KT 13/M03 A3025 RMK A01 T01251031  RH  034%=      5-min Rain = 0
KUM1 102048Z 25007KT 13/M03 A3025 RMK A01 T01251029  RH  034%=      5-min Rain = 0
KUM1 102049Z 24006KT 13/M04 A3025 RMK A01 T01261038  RH  032%=      5-min Rain = 0
KUM1 102050Z 25006KT 13/M04 A3025 RMK A01 T01261037  RH  032%=      5-min Rain = 0
KUM1 102051Z 23005KT 13/M04 A3025 RMK A01 T01261037  RH  032%=      5-min Rain = 0
KUM1 102052Z 25008KT 13/M04 A3025 RMK A01 T01261038  RH  032%=      5-min Rain = 0
KUM1 102053Z 24007KT 13/M04 A3025 RMK A01 T01261043  RH  031%=      5-min Rain = 0
KUM1 102054Z 25007KT 13/M04 A3025 RMK A01 T01261044  RH  030%=      5-min Rain = 0
KUM1 102055Z 25006KT 13/M03 A3025 RMK A01 T01261034  RH  033%=      5-min Rain = 0
KUM1 102056Z 26006KT 13/M03 A3025 RMK A01 T01271027  RH  034%=      5-min Rain = 0
KUM1 102057Z 25006KT 13/M04 A3025 RMK A01 T01281037  RH  032%=      5-min Rain = 0
KUM1 102058Z 25007KT 13/M04 A3025 RMK A01 T01281041  RH  031%=      5-min Rain = 0
KUM1 102059Z 26007KT 13/M04 A3025 RMK A01 T01271037  RH  032%=      5-min Rain = 0
KUM1 102100Z 26007KT 13/M03 A3025 RMK A01 T01271034  RH  033%=      5-min Rain = 0
KUM1 102101Z 27005KT 13/M04 A3025 RMK A01 T01271040  RH  031%=      5-min Rain = 0
KUM1 102102Z 26004KT 13/M04 A3025 RMK A01 T01261037  RH  032%=      5-min Rain = 0
KUM1 102103Z 25004KT 13/M03 A3025 RMK A01 T01261033  RH  033%=      5-min Rain = 0
KUM1 102104Z 25005KT 13/M03 A3025 RMK A01 T01281028  RH  034%=      5-min Rain = 0
KUM1 102105Z 24005KT 13/M04 A3025 RMK A01 T01281039  RH  031%=      5-min Rain = 0
KUM1 102106Z 28003KT 13/M04 A3025 RMK A01 T01271040  RH  031%=      5-min Rain = 0
KUM1 102107Z 27002KT 13/M04 A3025 RMK A01 T01271042  RH  031%=      5-min Rain = 0
KUM1 102108Z 25001KT 13/M04 A3025 RMK A01 T01271039  RH  031%=      5-min Rain = 0
KUM1 102109Z 23002KT 13/M03 A3025 RMK A01 T01281031  RH  033%=      5-min Rain = 0
KUM1 102110Z 23005KT 13/M03 A3025 RMK A01 T01311034  RH  032%=      5-min Rain = 0
KUM1 102111Z 25005KT 13/M04 A3025 RMK A01 T01311038  RH  031%=      5-min Rain = 0
KUM1 102112Z 28002KT 13/M04 A3025 RMK A01 T01301042  RH  030%=      5-min Rain = 0
KUM1 102113Z 26002KT 13/M04 A3025 RMK A01 T01301041  RH  030%=      5-min Rain = 0
KUM1 102114Z 24001KT 13/M04 A3025 RMK A01 T01301041  RH  030%=      5-min Rain = 0
KUM1 102115Z 23001KT 13/M04 A3025 RMK A01 T01321040  RH  030%=      5-min Rain = 0
KUM1 102116Z 24001KT 13/M04 A3025 RMK A01 T01331039  RH  030%=      5-min Rain = 0
KUM1 102117Z 22002KT 13/M04 A3025 RMK A01 T01341042  RH  029%=      5-min Rain = 0
KUM1 102118Z 26001KT 13/M04 A3025 RMK A01 T01341040  RH  030%=      5-min Rain = 0
KUM1 102119Z 23002KT 13/M04 A3025 RMK A01 T01341038  RH  030%=      5-min Rain = 0
KUM1 102120Z 25003KT 14/M03 A3025 RMK A01 T01351033  RH  031%=      5-min Rain = 0
KUM1 102121Z 26004KT 14/M04 A3025 RMK A01 T01351038  RH  030%=      5-min Rain = 0
KUM1 102122Z 23004KT 14/M05 A3025 RMK A01 T01351046  RH  028%=      5-min Rain = 0
KUM1 102123Z 22006KT 13/M05 A3024 RMK A01 T01341050  RH  028%=      5-min Rain = 0
KUM1 102124Z 24007KT 13/M05 A3024 RMK A01 T01341051  RH  027%=      5-min Rain = 0
KUM1 102125Z 24006KT 13/M05 A3024 RMK A01 T01331053  RH  027%=      5-min Rain = 0
KUM1 102126Z 24004KT 13/M06 A3024 RMK A01 T01311056  RH  027%=      5-min Rain = 0
KUM1 102127Z 24006KT 13/M05 A3024 RMK A01 T01311047  RH  029%=      5-min Rain = 0
KUM1 102128Z 22006KT 13/M04 A3024 RMK A01 T01321044  RH  029%=      5-min Rain = 0
KUM1 102129Z 22004KT 13/M05 A3024 RMK A01 T01321046  RH  029%=      5-min Rain = 0
KUM1 102130Z 22004KT 13/M05 A3024 RMK A01 T01321052  RH  027%=      5-min Rain = 0
KUM1 102131Z 22005KT 13/M05 A3024 RMK A01 T01321047  RH  028%=      5-min Rain = 0
KUM1 102132Z 22004KT 13/M05 A3024 RMK A01 T01321054  RH  027%=      5-min Rain = 0
KUM1 102133Z 23003KT 13/M05 A3024 RMK A01 T01321050  RH  028%=      5-min Rain = 0
KUM1 102134Z 24001KT 13/M05 A3024 RMK A01 T01321050  RH  028%=      5-min Rain = 0
KUM1 102135Z 26003KT 13/M05 A3024 RMK A01 T01341049  RH  028%=      5-min Rain = 0
KUM1 102136Z 27003KT 13/M05 A3024 RMK A01 T01341047  RH  028%=      5-min Rain = 0
KUM1 102137Z 24005KT 13/M04 A3024 RMK A01 T01341043  RH  029%=      5-min Rain = 0
KUM1 102138Z 23007KT 13/M06 A3024 RMK A01 T01341056  RH  026%=      5-min Rain = 0
KUM1 102139Z 21007KT 13/M06 A3024 RMK A01 T01331055  RH  027%=      5-min Rain = 0
KUM1 102140Z 21007KT 13/M05 A3024 RMK A01 T01331054  RH  027%=      5-min Rain = 0
KUM1 102141Z 21006KT 13/M06 A3024 RMK A01 T01331055  RH  027%=      5-min Rain = 0
KUM1 102142Z 21006KT 13/M05 A3024 RMK A01 T01341053  RH  027%=      5-min Rain = 0
KUM1 102143Z 21005KT 13/M06 A3024 RMK A01 T01331057  RH  026%=      5-min Rain = 0
KUM1 102144Z 22004KT 13/M06 A3024 RMK A01 T01331056  RH  026%=      5-min Rain = 0
KUM1 102145Z 23004KT 13/M06 A3024 RMK A01 T01331055  RH  027%=      5-min Rain = 0
KUM1 102146Z 24004KT 13/M05 A3024 RMK A01 T01331052  RH  027%=      5-min Rain = 0
KUM1 102147Z 26003KT 13/M05 A3024 RMK A01 T01331050  RH  028%=      5-min Rain = 0
KUM1 102148Z 26003KT 13/M05 A3024 RMK A01 T01341045  RH  029%=      5-min Rain = 0
KUM1 102149Z 22004KT 14/M05 A3024 RMK A01 T01351050  RH  027%=      5-min Rain = 0
KUM1 102150Z 24004KT 14/M05 A3024 RMK A01 T01351054  RH  026%=      5-min Rain = 0
KUM1 102151Z 23003KT 13/M06 A3024 RMK A01 T01341061  RH  025%=      5-min Rain = 0
KUM1 102152Z 20005KT 13/M06 A3024 RMK A01 T01331055  RH  027%=      5-min Rain = 0
KUM1 102153Z 19004KT 13/M05 A3024 RMK A01 T01331052  RH  027%=      5-min Rain = 0
KUM1 102154Z 19003KT 13/M06 A3024 RMK A01 T01331061  RH  025%=      5-min Rain = 0
KUM1 102155Z 18003KT 13/M06 A3024 RMK A01 T01341058  RH  026%=      5-min Rain = 0
KUM1 102156Z 19003KT 13/M06 A3024 RMK A01 T01341061  RH  025%=      5-min Rain = 0
KUM1 102157Z 20004KT 13/M06 A3024 RMK A01 T01341059  RH  026%=      5-min Rain = 0
KUM1 102158Z 22005KT 13/M05 A3024 RMK A01 T01341051  RH  027%=      5-min Rain = 0
KUM1 102159Z 22004KT 13/M06 A3024 RMK A01 T01331057  RH  026%=      5-min Rain = 0
KUM1 102200Z 22004KT 13/M05 A3024 RMK A01 T01321054  RH  027%=      5-min Rain = 0
KUM1 102201Z 22004KT 13/M05 A3024 RMK A01 T01321051  RH  028%=      5-min Rain = 0
KUM1 102202Z 23003KT 13/M06 A3024 RMK A01 T01321055  RH  027%=      5-min Rain = 0
KUM1 102203Z 22004KT 13/M06 A3024 RMK A01 T01311056  RH  027%=      5-min Rain = 0
KUM1 102204Z 21003KT 13/M06 A3024 RMK A01 T01311056  RH  027%=      5-min Rain = 0
KUM1 102205Z 20005KT 13/M05 A3024 RMK A01 T01321054  RH  027%=      5-min Rain = 0
KUM1 102206Z 22008KT 13/M05 A3024 RMK A01 T01331054  RH  027%=      5-min Rain = 0
KUM1 102207Z 23006KT 13/M05 A3024 RMK A01 T01331053  RH  027%=      5-min Rain = 0
KUM1 102208Z 24007KT 13/M05 A3024 RMK A01 T01331052  RH  027%=      5-min Rain = 0
KUM1 102209Z 23007KT 13/M06 A3024 RMK A01 T01321055  RH  027%=      5-min Rain = 0
KUM1 102210Z 22005KT 13/M06 A3024 RMK A01 T01311058  RH  026%=      5-min Rain = 0
KUM1 102211Z 22004KT 13/M06 A3024 RMK A01 T01311057  RH  027%=      5-min Rain = 0
KUM1 102212Z 23005KT 13/M05 A3024 RMK A01 T01311054  RH  027%=      5-min Rain = 0
KUM1 102213Z 24005KT 13/M05 A3024 RMK A01 T01311052  RH  028%=      5-min Rain = 0
KUM1 102214Z 25004KT 13/M06 A3024 RMK A01 T01321055  RH  027%=      5-min Rain = 0
KUM1 102215Z 26005KT 13/M05 A3024 RMK A01 T01321050  RH  028%=      5-min Rain = 0
KUM1 102216Z 26005KT 13/M05 A3024 RMK A01 T01321049  RH  028%=      5-min Rain = 0
KUM1 102217Z 26005KT 13/M05 A3024 RMK A01 T01321049  RH  028%=      5-min Rain = 0
KUM1 102218Z 24005KT 13/M05 A3024 RMK A01 T01321046  RH  029%=      5-min Rain = 0
KUM1 102219Z 25004KT 13/M04 A3024 RMK A01 T01311044  RH  029%=      5-min Rain = 0
KUM1 102220Z 25004KT 13/M05 A3024 RMK A01 T01311045  RH  029%=      5-min Rain = 0
KUM1 102221Z 25004KT 13/M05 A3024 RMK A01 T01311046  RH  029%=      5-min Rain = 0
KUM1 102222Z 25006KT 13/M04 A3024 RMK A01 T01311044  RH  029%=      5-min Rain = 0
KUM1 102223Z 25005KT 13/M05 A3024 RMK A01 T01301045  RH  029%=      5-min Rain = 0
KUM1 102224Z 24005KT 13/M05 A3023 RMK A01 T01301045  RH  029%=      5-min Rain = 0
KUM1 102225Z 24005KT 13/M05 A3023 RMK A01 T01301045  RH  029%=      5-min Rain = 0
KUM1 102226Z 22005KT 13/M05 A3023 RMK A01 T01301047  RH  029%=      5-min Rain = 0
KUM1 102227Z 23005KT 13/M05 A3023 RMK A01 T01301048  RH  029%=      5-min Rain = 0
KUM1 102228Z 23004KT 13/M05 A3023 RMK A01 T01291050  RH  028%=      5-min Rain = 0
KUM1 102229Z 23004KT 13/M05 A3023 RMK A01 T01291053  RH  028%=      5-min Rain = 0
KUM1 102230Z 23003KT 13/M05 A3023 RMK A01 T01301052  RH  028%=      5-min Rain = 0
KUM1 102231Z 23002KT 13/M05 A3023 RMK A01 T01301050  RH  028%=      5-min Rain = 0
KUM1 102232Z 23002KT 13/M05 A3023 RMK A01 T01301048  RH  029%=      5-min Rain = 0
KUM1 102233Z 23002KT 13/M05 A3024 RMK A01 T01311046  RH  029%=      5-min Rain = 0
KUM1 102234Z 22003KT 13/M04 A3024 RMK A01 T01311042  RH  030%=      5-min Rain = 0
KUM1 102235Z 23002KT 13/M04 A3024 RMK A01 T01311042  RH  030%=      5-min Rain = 0
KUM1 102236Z 23002KT 13/M04 A3024 RMK A01 T01311042  RH  030%=      5-min Rain = 0
KUM1 102237Z 23002KT 13/M04 A3024 RMK A01 T01311039  RH  030%=      5-min Rain = 0
KUM1 102238Z 23003KT 13/M04 A3024 RMK A01 T01311038  RH  031%=      5-min Rain = 0
KUM1 102239Z 22003KT 13/M04 A3024 RMK A01 T01311039  RH  030%=      5-min Rain = 0
KUM1 102240Z 23003KT 13/M05 A3024 RMK A01 T01301046  RH  029%=      5-min Rain = 0
KUM1 102241Z 25003KT 13/M04 A3024 RMK A01 T01301044  RH  030%=      5-min Rain = 0
KUM1 102242Z 26003KT 13/M05 A3024 RMK A01 T01291050  RH  029%=      5-min Rain = 0
KUM1 102243Z 26004KT 13/M04 A3024 RMK A01 T01291041  RH  030%=      5-min Rain = 0
KUM1 102244Z 26004KT 13/M04 A3024 RMK A01 T01271043  RH  030%=      5-min Rain = 0
KUM1 102245Z 25004KT 13/M05 A3024 RMK A01 T01261045  RH  030%=      5-min Rain = 0
KUM1 102246Z 25004KT 13/M05 A3024 RMK A01 T01251047  RH  030%=      5-min Rain = 0
KUM1 102247Z 25004KT 13/M05 A3024 RMK A01 T01251051  RH  029%=      5-min Rain = 0
KUM1 102248Z 24004KT 12/M05 A3024 RMK A01 T01241049  RH  030%=      5-min Rain = 0
KUM1 102249Z 24003KT 12/M05 A3024 RMK A01 T01231050  RH  030%=      5-min Rain = 0
KUM1 102250Z 24003KT 12/M05 A3024 RMK A01 T01221050  RH  030%=      5-min Rain = 0
KUM1 102251Z 23003KT 12/M05 A3024 RMK A01 T01221051  RH  030%=      5-min Rain = 0
KUM1 102252Z 23003KT 12/M05 A3024 RMK A01 T01211054  RH  029%=      5-min Rain = 0
KUM1 102253Z 22003KT 12/M06 A3024 RMK A01 T01221055  RH  029%=      5-min Rain = 0
KUM1 102254Z 22003KT 12/M06 A3024 RMK A01 T01221055  RH  029%=      5-min Rain = 0
KUM1 102255Z 21003KT 12/M06 A3024 RMK A01 T01221055  RH  029%=      5-min Rain = 0
KUM1 102256Z 21003KT 12/M05 A3024 RMK A01 T01221054  RH  029%=      5-min Rain = 0
KUM1 102257Z 21003KT 12/M05 A3024 RMK A01 T01211054  RH  029%=      5-min Rain = 0
KUM1 102258Z 21003KT 12/M06 A3024 RMK A01 T01201055  RH  029%=      5-min Rain = 0
KUM1 102259Z 22003KT 12/M06 A3024 RMK A01 T01201055  RH  029%=      5-min Rain = 0
KUM1 102300Z 22003KT 12/M06 A3024 RMK A01 T01191055  RH  029%=      5-min Rain = 0
KUM1 102301Z 22003KT 12/M06 A3024 RMK A01 T01181056  RH  029%=      5-min Rain = 0
KUM1 102302Z 20002KT 12/M06 A3024 RMK A01 T01181056  RH  029%=      5-min Rain = 0
KUM1 102303Z 20003KT 12/M05 A3024 RMK A01 T01171054  RH  030%=      5-min Rain = 0
KUM1 102304Z 20003KT 12/M06 A3024 RMK A01 T01151058  RH  029%=      5-min Rain = 0
KUM1 102305Z 20003KT 12/M06 A3024 RMK A01 T01151059  RH  029%=      5-min Rain = 0
KUM1 102306Z 20003KT 11/M06 A3024 RMK A01 T01141060  RH  029%=      5-min Rain = 0
KUM1 102307Z 19003KT 11/M06 A3024 RMK A01 T01141058  RH  030%=      5-min Rain = 0
KUM1 102308Z 19003KT 11/M06 A3024 RMK A01 T01131059  RH  029%=      5-min Rain = 0
KUM1 102309Z 19003KT 11/M06 A3024 RMK A01 T01121060  RH  029%=      5-min Rain = 0
KUM1 102310Z 19003KT 11/M06 A3024 RMK A01 T01111061  RH  029%=      5-min Rain = 0
KUM1 102311Z 19004KT 11/M06 A3024 RMK A01 T01101064  RH  029%=      5-min Rain = 0
KUM1 102312Z 19005KT 11/M06 A3024 RMK A01 T01091062  RH  029%=      5-min Rain = 0
KUM1 102313Z 19004KT 11/M06 A3024 RMK A01 T01081061  RH  030%=      5-min Rain = 0
KUM1 102314Z 19005KT 11/M06 A3024 RMK A01 T01061058  RH  031%=      5-min Rain = 0
KUM1 102315Z 19005KT 11/M06 A3024 RMK A01 T01051055  RH  032%=      5-min Rain = 0
KUM1 102316Z 19005KT 10/M06 A3024 RMK A01 T01031058  RH  032%=      5-min Rain = 0
KUM1 102317Z 19005KT 10/M06 A3024 RMK A01 T01011058  RH  032%=      5-min Rain = 0
KUM1 102318Z 18005KT 10/M06 A3024 RMK A01 T00981056  RH  033%=      5-min Rain = 0
KUM1 102319Z 18006KT 10/M06 A3024 RMK A01 T00961056  RH  034%=      5-min Rain = 0
KUM1 102320Z 18006KT 09/M06 A3024 RMK A01 T00941057  RH  034%=      5-min Rain = 0
KUM1 102321Z 18006KT 09/M06 A3024 RMK A01 T00921057  RH  035%=      5-min Rain = 0
KUM1 102322Z 18006KT 09/M06 A3024 RMK A01 T00901057  RH  035%=      5-min Rain = 0
KUM1 102323Z 18006KT 09/M06 A3024 RMK A01 T00891059  RH  035%=      5-min Rain = 0
KUM1 102324Z 17006KT 09/M06 A3024 RMK A01 T00871062  RH  034%=      5-min Rain = 0
KUM1 102325Z 17007KT 09/M06 A3023 RMK A01 T00851062  RH  035%=      5-min Rain = 0
KUM1 102326Z 17007KT 08/M06 A3023 RMK A01 T00841061  RH  035%=      5-min Rain = 0
KUM1 102327Z 17007KT 08/M06 A3023 RMK A01 T00831058  RH  036%=      5-min Rain = 0
KUM1 102328Z 16006KT 08/M06 A3023 RMK A01 T00811059  RH  036%=      5-min Rain = 0
KUM1 102329Z 17007KT 08/M06 A3023 RMK A01 T00801060  RH  037%=      5-min Rain = 0
KUM1 102330Z 17007KT 08/M06 A3023 RMK A01 T00791062  RH  036%=      5-min Rain = 0
KUM1 102331Z 17007KT 08/M06 A3023 RMK A01 T00781063  RH  036%=      5-min Rain = 0
KUM1 102332Z 17007KT 08/M06 A3023 RMK A01 T00781063  RH  036%=      5-min Rain = 0
KUM1 102333Z 17007KT 08/M06 A3023 RMK A01 T00781064  RH  036%=      5-min Rain = 0
KUM1 102334Z 17006KT 08/M07 A3023 RMK A01 T00781065  RH  036%=      5-min Rain = 0
KUM1 102335Z 17006KT 08/M07 A3023 RMK A01 T00781065  RH  036%=      5-min Rain = 0
KUM1 102336Z 17006KT 08/M07 A3023 RMK A01 T00771065  RH  036%=      5-min Rain = 0
KUM1 102337Z 17007KT 08/M07 A3023 RMK A01 T00761066  RH  036%=      5-min Rain = 0
KUM1 102338Z 17007KT 08/M07 A3023 RMK A01 T00751066  RH  036%=      5-min Rain = 0
KUM1 102339Z 17007KT 07/M07 A3023 RMK A01 T00731067  RH  036%=      5-min Rain = 0
KUM1 102340Z 17008KT 07/M07 A3023 RMK A01 T00721068  RH  036%=      5-min Rain = 0
KUM1 102341Z 18008KT 07/M07 A3023 RMK A01 T00711067  RH  037%=      5-min Rain = 0
KUM1 102342Z 17008KT 07/M07 A3023 RMK A01 T00701068  RH  037%=      5-min Rain = 0
KUM1 102343Z 17007KT 07/M07 A3024 RMK A01 T00681066  RH  038%=      5-min Rain = 0
KUM1 102344Z 18007KT 07/M07 A3024 RMK A01 T00681066  RH  038%=      5-min Rain = 0
KUM1 102345Z 18007KT 07/M07 A3024 RMK A01 T00661065  RH  039%=      5-min Rain = 0
KUM1 102346Z 17007KT 07/M06 A3024 RMK A01 T00651064  RH  039%=      5-min Rain = 0
KUM1 102347Z 17008KT 07/M06 A3024 RMK A01 T00651061  RH  040%=      5-min Rain = 0
KUM1 102348Z 17008KT 06/M06 A3024 RMK A01 T00641061  RH  040%=      5-min Rain = 0
KUM1 102349Z 17008KT 06/M06 A3024 RMK A01 T00621062  RH  040%=      5-min Rain = 0
KUM1 102350Z 17008KT 06/M06 A3024 RMK A01 T00601064  RH  041%=      5-min Rain = 0
KUM1 102351Z 18008KT 06/M06 A3024 RMK A01 T00591064  RH  041%=      5-min Rain = 0
KUM1 102352Z 18008KT 06/M06 A3024 RMK A01 T00581064  RH  041%=      5-min Rain = 0
KUM1 102353Z 18008KT 06/M07 A3024 RMK A01 T00571065  RH  041%=      5-min Rain = 0
KUM1 102354Z 17008KT 06/M06 A3024 RMK A01 T00561064  RH  042%=      5-min Rain = 0
KUM1 102355Z 17008KT 06/M07 A3024 RMK A01 T00551065  RH  042%=      5-min Rain = 0
KUM1 102356Z 17008KT 06/M07 A3024 RMK A01 T00551065  RH  042%=      5-min Rain = 0
KUM1 102357Z 17008KT 05/M06 A3024 RMK A01 T00541064  RH  042%=      5-min Rain = 0
KUM1 102358Z 17008KT 05/M06 A3024 RMK A01 T00531063  RH  043%=      5-min Rain = 0
KUM1 102359Z 17008KT 05/M06 A3024 RMK A01 T00531063  RH  043%=      5-min Rain = 0
KUM1 110000Z 18008KT 05/M06 A3024 RMK A01 T00531062  RH  043%=      5-min Rain = 0
KUM1 110001Z 18009KT 05/M06 A3024 RMK A01 T00531063  RH  043%=      5-min Rain = 0
KUM1 110002Z 18008KT 05/M06 A3024 RMK A01 T00521063  RH  043%=      5-min Rain = 0
KUM1 110003Z 18008KT 05/M06 A3024 RMK A01 T00511063  RH  043%=      5-min Rain = 0
KUM1 110004Z 18008KT 05/M06 A3024 RMK A01 T00521063  RH  043%=      5-min Rain = 0
KUM1 110005Z 17008KT 05/M06 A3024 RMK A01 T00511063  RH  043%=      5-min Rain = 0
KUM1 110006Z 17008KT 05/M06 A3024 RMK A01 T00511063  RH  043%=      5-min Rain = 0
KUM1 110007Z 17008KT 05/M06 A3024 RMK A01 T00511062  RH  044%=      5-min Rain = 0
KUM1 110008Z 17008KT 05/M06 A3024 RMK A01 T00501063  RH  044%=      5-min Rain = 0
KUM1 110009Z 18008KT 05/M06 A3024 RMK A01 T00491064  RH  044%=      5-min Rain = 0
KUM1 110010Z 18008KT 05/M06 A3024 RMK A01 T00481063  RH  044%=      5-min Rain = 0
KUM1 110011Z 18008KT 05/M06 A3024 RMK A01 T00471062  RH  045%=      5-min Rain = 0
KUM1 110012Z 18008KT 05/M06 A3024 RMK A01 T00471062  RH  045%=      5-min Rain = 0
KUM1 110013Z 18008KT 05/M06 A3024 RMK A01 T00471062  RH  045%=      5-min Rain = 0
KUM1 110014Z 18008KT 05/M06 A3024 RMK A01 T00461063  RH  045%=      5-min Rain = 0
KUM1 110015Z 18008KT 05/M06 A3024 RMK A01 T00451064  RH  045%=      5-min Rain = 0
KUM1 110016Z 18008KT 04/M06 A3024 RMK A01 T00441062  RH  046%=      5-min Rain = 0
KUM1 110017Z 18008KT 04/M06 A3024 RMK A01 T00441062  RH  046%=      5-min Rain = 0
KUM1 110018Z 18008KT 04/M06 A3024 RMK A01 T00441063  RH  046%=      5-min Rain = 0
KUM1 110019Z 18008KT 04/M06 A3024 RMK A01 T00431063  RH  046%=      5-min Rain = 0
KUM1 110020Z 18008KT 04/M06 A3024 RMK A01 T00431063  RH  046%=      5-min Rain = 0
KUM1 110021Z 18008KT 04/M06 A3024 RMK A01 T00421064  RH  046%=      5-min Rain = 0
KUM1 110022Z 18008KT 04/M06 A3024 RMK A01 T00391064  RH  047%=      5-min Rain = 0
KUM1 110023Z 18008KT 04/M06 A3024 RMK A01 T00381062  RH  048%=      5-min Rain = 0
KUM1 110024Z 18008KT 04/M06 A3024 RMK A01 T00381062  RH  048%=      5-min Rain = 0
KUM1 110025Z 18008KT 04/M06 A3024 RMK A01 T00381061  RH  048%=      5-min Rain = 0
KUM1 110026Z 18008KT 04/M06 A3024 RMK A01 T00381063  RH  048%=      5-min Rain = 0
KUM1 110027Z 18008KT 04/M06 A3024 RMK A01 T00371063  RH  048%=      5-min Rain = 0
KUM1 110028Z 18008KT 04/M06 A3024 RMK A01 T00371064  RH  048%=      5-min Rain = 0
KUM1 110029Z 18008KT 04/M07 A3024 RMK A01 T00361065  RH  047%=      5-min Rain = 0
KUM1 110030Z 18009KT 04/M07 A3024 RMK A01 T00361066  RH  047%=      5-min Rain = 0
KUM1 110031Z 18009KT 04/M07 A3024 RMK A01 T00361066  RH  047%=      5-min Rain = 0
KUM1 110032Z 18008KT 04/M07 A3024 RMK A01 T00361066  RH  047%=      5-min Rain = 0
KUM1 110033Z 18009KT 04/M07 A3024 RMK A01 T00361067  RH  047%=      5-min Rain = 0
KUM1 110034Z 18009KT 04/M07 A3024 RMK A01 T00361068  RH  047%=      5-min Rain = 0
KUM1 110035Z 18008KT 04/M07 A3024 RMK A01 T00351069  RH  047%=      5-min Rain = 0
KUM1 110036Z 18009KT 04/M07 A3023 RMK A01 T00351069  RH  047%=      5-min Rain = 0
KUM1 110037Z 18008KT 03/M07 A3023 RMK A01 T00341067  RH  047%=      5-min Rain = 0
KUM1 110038Z 18008KT 04/M07 A3023 RMK A01 T00351067  RH  048%=      5-min Rain = 0
KUM1 110039Z 18008KT 03/M07 A3023 RMK A01 T00341067  RH  047%=      5-min Rain = 0
KUM1 110040Z 18008KT 03/M07 A3023 RMK A01 T00331068  RH  047%=      5-min Rain = 0
KUM1 110041Z 18008KT 03/M07 A3023 RMK A01 T00321069  RH  048%=      5-min Rain = 0
KUM1 110042Z 18008KT 03/M07 A3023 RMK A01 T00311069  RH  048%=      5-min Rain = 0
KUM1 110043Z 18008KT 03/M07 A3023 RMK A01 T00301069  RH  048%=      5-min Rain = 0
KUM1 110044Z 18008KT 03/M07 A3023 RMK A01 T00291069  RH  048%=      5-min Rain = 0
KUM1 110045Z 18009KT 03/M07 A3023 RMK A01 T00291069  RH  048%=      5-min Rain = 0
KUM1 110046Z 18008KT 03/M07 A3023 RMK A01 T00281070  RH  048%=      5-min Rain = 0
KUM1 110047Z 18009KT 03/M07 A3023 RMK A01 T00301067  RH  049%=      5-min Rain = 0
KUM1 110048Z 18009KT 03/M07 A3023 RMK A01 T00311067  RH  049%=      5-min Rain = 0
KUM1 110049Z 18009KT 03/M07 A3023 RMK A01 T00301069  RH  048%=      5-min Rain = 0
KUM1 110050Z 18009KT 03/M07 A3023 RMK A01 T00291070  RH  048%=      5-min Rain = 0
KUM1 110051Z 18008KT 03/M07 A3023 RMK A01 T00291071  RH  048%=      5-min Rain = 0
KUM1 110052Z 18008KT 03/M07 A3023 RMK A01 T00281071  RH  048%=      5-min Rain = 0
KUM1 110053Z 18008KT 03/M07 A3023 RMK A01 T00271072  RH  048%=      5-min Rain = 0
KUM1 110054Z 18008KT 03/M07 A3023 RMK A01 T00271072  RH  048%=      5-min Rain = 0
KUM1 110055Z 18008KT 03/M07 A3023 RMK A01 T00271072  RH  048%=      5-min Rain = 0
KUM1 110056Z 18008KT 03/M07 A3023 RMK A01 T00271073  RH  048%=      5-min Rain = 0
KUM1 110057Z 18009KT 03/M07 A3023 RMK A01 T00261074  RH  048%=      5-min Rain = 0
KUM1 110058Z 19010KT 02/M08 A3024 RMK A01 T00241076  RH  047%=      5-min Rain = 0
KUM1 110059Z 19010KT 02/M08 A3024 RMK A01 T00211077  RH  048%=      5-min Rain = 0
KUM1 110100Z 19009KT 02/M07 A3024 RMK A01 T00201074  RH  050%=      5-min Rain = 0
KUM1 110101Z 19009KT 02/M07 A3024 RMK A01 T00201073  RH  050%=      5-min Rain = 0
KUM1 110102Z 19009KT 02/M07 A3024 RMK A01 T00201072  RH  051%=      5-min Rain = 0
KUM1 110103Z 19009KT 02/M07 A3024 RMK A01 T00181072  RH  051%=      5-min Rain = 0
KUM1 110104Z 19009KT 02/M07 A3024 RMK A01 T00171072  RH  052%=      5-min Rain = 0
KUM1 110105Z 19011KT 02/M07 A3024 RMK A01 T00161072  RH  052%=      5-min Rain = 0
KUM1 110106Z 19011KT 02/M07 A3024 RMK A01 T00161072  RH  052%=      5-min Rain = 0
KUM1 110107Z 19012KT 02/M07 A3024 RMK A01 T00191069  RH  052%=      5-min Rain = 0
KUM1 110108Z 19011KT 02/M07 A3024 RMK A01 T00241065  RH  052%=      5-min Rain = 0
KUM1 110109Z 19011KT 03/M07 A3024 RMK A01 T00281065  RH  051%=      5-min Rain = 0
KUM1 110110Z 19011KT 03/M07 A3024 RMK A01 T00301065  RH  050%=      5-min Rain = 0
KUM1 110111Z 19010KT 03/M07 A3024 RMK A01 T00301066  RH  049%=      5-min Rain = 0
KUM1 110112Z 19010KT 03/M07 A3024 RMK A01 T00291066  RH  049%=      5-min Rain = 0
KUM1 110113Z 19010KT 03/M07 A3024 RMK A01 T00291065  RH  050%=      5-min Rain = 0
KUM1 110114Z 19009KT 03/M07 A3024 RMK A01 T00281065  RH  050%=      5-min Rain = 0
KUM1 110115Z 19010KT 03/M06 A3024 RMK A01 T00281064  RH  051%=      5-min Rain = 0
KUM1 110116Z 19010KT 03/M06 A3024 RMK A01 T00271063  RH  051%=      5-min Rain = 0
KUM1 110117Z 19010KT 03/M06 A3024 RMK A01 T00261062  RH  052%=      5-min Rain = 0
KUM1 110118Z 19010KT 03/M06 A3024 RMK A01 T00251061  RH  053%=      5-min Rain = 0
KUM1 110119Z 19010KT 02/M06 A3024 RMK A01 T00241060  RH  054%=      5-min Rain = 0
KUM1 110120Z 19011KT 02/M06 A3024 RMK A01 T00221059  RH  055%=      5-min Rain = 0
KUM1 110121Z 19011KT 02/M06 A3024 RMK A01 T00221058  RH  056%=      5-min Rain = 0
KUM1 110122Z 19011KT 02/M06 A3024 RMK A01 T00211057  RH  056%=      5-min Rain = 0
KUM1 110123Z 19011KT 02/M06 A3024 RMK A01 T00211056  RH  057%=      5-min Rain = 0
KUM1 110124Z 19011KT 02/M05 A3024 RMK A01 T00201054  RH  058%=      5-min Rain = 0
KUM1 110125Z 19012KT 02/M05 A3024 RMK A01 T00211051  RH  059%=      5-min Rain = 0
KUM1 110126Z 19012KT 02/M05 A3024 RMK A01 T00221048  RH  060%=      5-min Rain = 0
KUM1 110127Z 19012KT 02/M05 A3024 RMK A01 T00231046  RH  060%=      5-min Rain = 0
KUM1 110128Z 19011KT 02/M04 A3024 RMK A01 T00241044  RH  061%=      5-min Rain = 0
KUM1 110129Z 19011KT 02/M04 A3024 RMK A01 T00241042  RH  062%=      5-min Rain = 0
KUM1 110130Z 19011KT 03/M04 A3024 RMK A01 T00251041  RH  062%=      5-min Rain = 0
KUM1 110131Z 19011KT 02/M04 A3024 RMK A01 T00241039  RH  063%=      5-min Rain = 0
KUM1 110132Z 19011KT 02/M04 A3024 RMK A01 T00241038  RH  063%=      5-min Rain = 0
KUM1 110133Z 19012KT 02/M04 A3024 RMK A01 T00241037  RH  064%=      5-min Rain = 0
KUM1 110134Z 19012KT 03/M04 A3024 RMK A01 T00251035  RH  065%=      5-min Rain = 0
KUM1 110135Z 19012KT 03/M03 A3024 RMK A01 T00251034  RH  065%=      5-min Rain = 0
KUM1 110136Z 19012KT 03/M03 A3024 RMK A01 T00251033  RH  066%=      5-min Rain = 0
KUM1 110137Z 19012KT 03/M03 A3024 RMK A01 T00261031  RH  066%=      5-min Rain = 0
KUM1 110138Z 19013KT 03/M03 A3024 RMK A01 T00271029  RH  067%=      5-min Rain = 0
KUM1 110139Z 19012KT 03/M03 A3024 RMK A01 T00281027  RH  067%=      5-min Rain = 0
KUM1 110140Z 19012KT 03/M03 A3024 RMK A01 T00291025  RH  068%=      5-min Rain = 0
KUM1 110141Z 19013KT 03/M03 A3024 RMK A01 T00291025  RH  068%=      5-min Rain = 0
KUM1 110142Z 19012KT 03/M02 A3024 RMK A01 T00291024  RH  068%=      5-min Rain = 0
KUM1 110143Z 19013KT 03/M02 A3024 RMK A01 T00301024  RH  068%=      5-min Rain = 0
KUM1 110144Z 19012KT 03/M02 A3024 RMK A01 T00291024  RH  068%=      5-min Rain = 0
KUM1 110145Z 19012KT 03/M02 A3024 RMK A01 T00291024  RH  068%=      5-min Rain = 0
KUM1 110146Z 19012KT 03/M02 A3024 RMK A01 T00281024  RH  069%=      5-min Rain = 0
KUM1 110147Z 19013KT 03/M02 A3024 RMK A01 T00281023  RH  069%=      5-min Rain = 0
KUM1 110148Z 19013KT 03/M02 A3024 RMK A01 T00271023  RH  069%=      5-min Rain = 0
KUM1 110149Z 19013KT 03/M02 A3024 RMK A01 T00281022  RH  070%=      5-min Rain = 0
KUM1 110150Z 19013KT 03/M02 A3024 RMK A01 T00281021  RH  070%=      5-min Rain = 0
KUM1 110151Z 19013KT 03/M02 A3024 RMK A01 T00281021  RH  070%=      5-min Rain = 0
KUM1 110152Z 19013KT 03/M02 A3024 RMK A01 T00281020  RH  070%=      5-min Rain = 0
KUM1 110153Z 19013KT 03/M02 A3024 RMK A01 T00281020  RH  071%=      5-min Rain = 0
KUM1 110154Z 19014KT 03/M02 A3024 RMK A01 T00281019  RH  071%=      5-min Rain = 0
KUM1 110155Z 19013KT 03/M02 A3024 RMK A01 T00281019  RH  071%=      5-min Rain = 0
KUM1 110156Z 19013KT 03/M02 A3024 RMK A01 T00271019  RH  072%=      5-min Rain = 0
KUM1 110157Z 19013KT 03/M02 A3024 RMK A01 T00271019  RH  072%=      5-min Rain = 0
KUM1 110158Z 19013KT 03/M02 A3024 RMK A01 T00261019  RH  072%=      5-min Rain = 0
KUM1 110159Z 19012KT 03/M02 A3024 RMK A01 T00261019  RH  072%=      5-min Rain = 0
KUM1 110200Z 19013KT 03/M02 A3024 RMK A01 T00251019  RH  072%=      5-min Rain = 0
KUM1 110201Z 19013KT 03/M02 A3024 RMK A01 T00251018  RH  073%=      5-min Rain = 0
KUM1 110202Z 19013KT 03/M02 A3024 RMK A01 T00261018  RH  073%=      5-min Rain = 0
KUM1 110203Z 19013KT 03/M02 A3024 RMK A01 T00261018  RH  073%=      5-min Rain = 0
KUM1 110204Z 19013KT 03/M02 A3024 RMK A01 T00261017  RH  073%=      5-min Rain = 0
KUM1 110205Z 19013KT 03/M02 A3024 RMK A01 T00261017  RH  073%=      5-min Rain = 0
KUM1 110206Z 19013KT 03/M02 A3024 RMK A01 T00261017  RH  073%=      5-min Rain = 0
KUM1 110207Z 19013KT 03/M02 A3024 RMK A01 T00261017  RH  074%=      5-min Rain = 0
KUM1 110208Z 19013KT 03/M02 A3024 RMK A01 T00251016  RH  074%=      5-min Rain = 0
KUM1 110209Z 19013KT 03/M02 A3024 RMK A01 T00251016  RH  075%=      5-min Rain = 0
KUM1 110210Z 19013KT 03/M02 A3024 RMK A01 T00251015  RH  075%=      5-min Rain = 0
KUM1 110211Z 20012KT 03/M02 A3024 RMK A01 T00251015  RH  075%=      5-min Rain = 0
KUM1 110212Z 20014KT 03/M01 A3024 RMK A01 T00251014  RH  075%=      5-min Rain = 0
KUM1 110213Z 19014KT 03/M01 A3024 RMK A01 T00251014  RH  075%=      5-min Rain = 0
KUM1 110214Z 20013KT 03/M01 A3024 RMK A01 T00251014  RH  076%=      5-min Rain = 0
KUM1 110215Z 20013KT 02/M01 A3024 RMK A01 T00241014  RH  076%=      5-min Rain = 0
KUM1 110216Z 20013KT 02/M01 A3024 RMK A01 T00241014  RH  076%=      5-min Rain = 0
KUM1 110217Z 20013KT 02/M01 A3024 RMK A01 T00241014  RH  076%=      5-min Rain = 0
KUM1 110218Z 20012KT 02/M01 A3024 RMK A01 T00231014  RH  076%=      5-min Rain = 0
KUM1 110219Z 20012KT 02/M01 A3024 RMK A01 T00221014  RH  077%=      5-min Rain = 0
KUM1 110220Z 20012KT 02/M01 A3024 RMK A01 T00221014  RH  077%=      5-min Rain = 0
KUM1 110221Z 20012KT 02/M01 A3024 RMK A01 T00231014  RH  077%=      5-min Rain = 0
KUM1 110222Z 20011KT 02/M01 A3024 RMK A01 T00221014  RH  077%=      5-min Rain = 0
KUM1 110223Z 20011KT 02/M01 A3024 RMK A01 T00221013  RH  078%=      5-min Rain = 0
KUM1 110224Z 20010KT 02/M01 A3024 RMK A01 T00211014  RH  078%=      5-min Rain = 0
KUM1 110225Z 20010KT 02/M02 A3024 RMK A01 T00201015  RH  078%=      5-min Rain = 0
KUM1 110226Z 20010KT 02/M02 A3024 RMK A01 T00181016  RH  078%=      5-min Rain = 0
KUM1 110227Z 20009KT 02/M02 A3024 RMK A01 T00171017  RH  078%=      5-min Rain = 0
KUM1 110228Z 20010KT 02/M02 A3024 RMK A01 T00161017  RH  079%=      5-min Rain = 0
KUM1 110229Z 20009KT 02/M02 A3024 RMK A01 T00151018  RH  079%=      5-min Rain = 0
KUM1 110230Z 20009KT 01/M02 A3024 RMK A01 T00131018  RH  079%=      5-min Rain = 0
KUM1 110231Z 20008KT 01/M02 A3024 RMK A01 T00121019  RH  080%=      5-min Rain = 0
KUM1 110232Z 20008KT 01/M02 A3024 RMK A01 T00111020  RH  080%=      5-min Rain = 0
KUM1 110233Z 20008KT 01/M02 A3025 RMK A01 T00101021  RH  080%=      5-min Rain = 0
KUM1 110234Z 21009KT 01/M02 A3025 RMK A01 T00091020  RH  081%=      5-min Rain = 0
KUM1 110235Z 21008KT 01/M02 A3025 RMK A01 T00091020  RH  081%=      5-min Rain = 0
KUM1 110236Z 21009KT 01/M02 A3025 RMK A01 T00091020  RH  081%=      5-min Rain = 0
KUM1 110237Z 21008KT 01/M02 A3025 RMK A01 T00091020  RH  081%=      5-min Rain = 0
KUM1 110238Z 21009KT 01/M02 A3025 RMK A01 T00091020  RH  081%=      5-min Rain = 0
KUM1 110239Z 21009KT 01/M02 A3025 RMK A01 T00091019  RH  081%=      5-min Rain = 0
KUM1 110240Z 21009KT 01/M02 A3025 RMK A01 T00101018  RH  081%=      5-min Rain = 0
KUM1 110241Z 21009KT 01/M02 A3025 RMK A01 T00101019  RH  081%=      5-min Rain = 0
KUM1 110242Z 21009KT 01/M02 A3025 RMK A01 T00101019  RH  081%=      5-min Rain = 0
KUM1 110243Z 21009KT 01/M02 A3025 RMK A01 T00101020  RH  081%=      5-min Rain = 0
KUM1 110244Z 21008KT 01/M02 A3025 RMK A01 T00091020  RH  081%=      5-min Rain = 0
KUM1 110245Z 21009KT 01/M02 A3025 RMK A01 T00091020  RH  081%=      5-min Rain = 0
KUM1 110246Z 21009KT 01/M02 A3025 RMK A01 T00091020  RH  081%=      5-min Rain = 0
KUM1 110247Z 21009KT 01/M02 A3025 RMK A01 T00091020  RH  081%=      5-min Rain = 0
KUM1 110248Z 20010KT 01/M02 A3025 RMK A01 T00091020  RH  081%=      5-min Rain = 0
KUM1 110249Z 20010KT 01/M02 A3024 RMK A01 T00091020  RH  081%=      5-min Rain = 0
KUM1 110250Z 20010KT 01/M02 A3024 RMK A01 T00091020  RH  081%=      5-min Rain = 0
KUM1 110251Z 20009KT 01/M02 A3024 RMK A01 T00091021  RH  081%=      5-min Rain = 0
KUM1 110252Z 20009KT 01/M02 A3024 RMK A01 T00071023  RH  080%=      5-min Rain = 0
KUM1 110253Z 20008KT 01/M02 A3024 RMK A01 T00061024  RH  080%=      5-min Rain = 0
KUM1 110254Z 20008KT 00/M03 A3025 RMK A01 T00041025  RH  080%=      5-min Rain = 0
KUM1 110255Z 20008KT 00/M03 A3025 RMK A01 T00031026  RH  081%=      5-min Rain = 0
KUM1 110256Z 20008KT 00/M03 A3025 RMK A01 T00021026  RH  081%=      5-min Rain = 0
KUM1 110257Z 20008KT 00/M03 A3025 RMK A01 T00011027  RH  082%=      5-min Rain = 0
KUM1 110258Z 20008KT 00/M03 A3025 RMK A01 T00011026  RH  082%=      5-min Rain = 0
KUM1 110259Z 20008KT 00/03 A3025 RMK A01 T00000-26  RH  082%=      5-min Rain = 0
KUM1 110300Z 20008KT 00/03 A3025 RMK A01 T00-00-27  RH  082%=      5-min Rain = 0
KUM1 110301Z 20008KT M00/M03 A3025 RMK A01 T10011027  RH  083%=      5-min Rain = 0
KUM1 110302Z 21008KT M00/M03 A3024 RMK A01 T10021027  RH  083%=      5-min Rain = 0
KUM1 110303Z 21008KT M00/M03 A3025 RMK A01 T10021026  RH  083%=      5-min Rain = 0
KUM1 110304Z 21008KT M00/M03 A3024 RMK A01 T10021027  RH  083%=      5-min Rain = 0
KUM1 110305Z 21008KT M00/M03 A3024 RMK A01 T10031028  RH  083%=      5-min Rain = 0
KUM1 110306Z 20008KT M00/M03 A3024 RMK A01 T10041028  RH  084%=      5-min Rain = 0
KUM1 110307Z 21008KT M01/M03 A3024 RMK A01 T10051029  RH  084%=      5-min Rain = 0
KUM1 110308Z 21008KT M01/M03 A3024 RMK A01 T10051029  RH  084%=      5-min Rain = 0
KUM1 110309Z 21009KT M01/M03 A3024 RMK A01 T10051029  RH  084%=      5-min Rain = 0
KUM1 110310Z 21008KT M01/M03 A3024 RMK A01 T10051028  RH  085%=      5-min Rain = 0
KUM1 110311Z 21008KT M01/M03 A3024 RMK A01 T10051028  RH  085%=      5-min Rain = 0
KUM1 110312Z 21008KT M01/M03 A3024 RMK A01 T10051028  RH  084%=      5-min Rain = 0
KUM1 110313Z 21007KT M01/M03 A3024 RMK A01 T10051029  RH  084%=      5-min Rain = 0
KUM1 110314Z 21008KT M01/M03 A3024 RMK A01 T10051029  RH  084%=      5-min Rain = 0
KUM1 110315Z 21008KT M01/M03 A3024 RMK A01 T10051029  RH  084%=      5-min Rain = 0
KUM1 110316Z 21008KT M01/M03 A3024 RMK A01 T10051028  RH  084%=      5-min Rain = 0
KUM1 110317Z 21008KT M01/M03 A3024 RMK A01 T10061028  RH  085%=      5-min Rain = 0
KUM1 110318Z 21009KT M01/M03 A3024 RMK A01 T10051028  RH  085%=      5-min Rain = 0
KUM1 110319Z 21009KT M01/M03 A3024 RMK A01 T10051027  RH  085%=      5-min Rain = 0
KUM1 110320Z 21009KT M00/M03 A3024 RMK A01 T10041026  RH  085%=      5-min Rain = 0
KUM1 110321Z 21009KT M00/M03 A3024 RMK A01 T10031025  RH  085%=      5-min Rain = 0
KUM1 110322Z 21009KT M00/M02 A3024 RMK A01 T10021024  RH  085%=      5-min Rain = 0
KUM1 110323Z 21009KT M00/M03 A3024 RMK A01 T10011025  RH  084%=      5-min Rain = 0
KUM1 110324Z 21010KT M00/M02 A3024 RMK A01 T10011024  RH  084%=      5-min Rain = 0
KUM1 110325Z 21009KT 00/02 A3024 RMK A01 T00000-24  RH  084%=      5-min Rain = 0
KUM1 110326Z 21009KT 00/02 A3024 RMK A01 T00000-24  RH  083%=      5-min Rain = 0
KUM1 110327Z 21009KT 00/03 A3024 RMK A01 T00-00-25  RH  083%=      5-min Rain = 0
KUM1 110328Z 21009KT 00/03 A3024 RMK A01 T00-00-26  RH  083%=      5-min Rain = 0
KUM1 110329Z 21009KT M00/M03 A3024 RMK A01 T10011026  RH  083%=      5-min Rain = 0
KUM1 110330Z 21009KT M00/M03 A3024 RMK A01 T10011026  RH  083%=      5-min Rain = 0
KUM1 110331Z 21009KT M00/M03 A3024 RMK A01 T10021026  RH  084%=      5-min Rain = 0
KUM1 110332Z 21009KT M00/M03 A3024 RMK A01 T10021026  RH  084%=      5-min Rain = 0
KUM1 110333Z 21009KT M00/M03 A3024 RMK A01 T10021026  RH  084%=      5-min Rain = 0
KUM1 110334Z 20008KT M00/M03 A3024 RMK A01 T10021027  RH  084%=      5-min Rain = 0
KUM1 110335Z 20009KT M00/M03 A3024 RMK A01 T10031027  RH  084%=      5-min Rain = 0
KUM1 110336Z 20008KT M00/M03 A3024 RMK A01 T10031028  RH  084%=      5-min Rain = 0
KUM1 110337Z 20008KT M00/M03 A3024 RMK A01 T10041028  RH  084%=      5-min Rain = 0
KUM1 110338Z 20008KT M01/M03 A3024 RMK A01 T10051028  RH  084%=      5-min Rain = 0
KUM1 110339Z 20009KT M01/M03 A3024 RMK A01 T10051029  RH  084%=      5-min Rain = 0
KUM1 110340Z 20009KT M01/M03 A3024 RMK A01 T10061029  RH  084%=      5-min Rain = 0
KUM1 110341Z 20009KT M01/M03 A3024 RMK A01 T10061028  RH  085%=      5-min Rain = 0
KUM1 110342Z 20009KT M01/M03 A3024 RMK A01 T10061029  RH  085%=      5-min Rain = 0
KUM1 110343Z 20009KT M01/M03 A3024 RMK A01 T10061029  RH  085%=      5-min Rain = 0
KUM1 110344Z 20008KT M01/M03 A3024 RMK A01 T10071030  RH  084%=      5-min Rain = 0
KUM1 110345Z 20009KT M01/M03 A3024 RMK A01 T10081031  RH  084%=      5-min Rain = 0
KUM1 110346Z 20008KT M01/M03 A3024 RMK A01 T10081030  RH  085%=      5-min Rain = 0
KUM1 110347Z 20008KT M01/M03 A3024 RMK A01 T10081030  RH  085%=      5-min Rain = 0
KUM1 110348Z 20008KT M01/M03 A3024 RMK A01 T10091031  RH  085%=      5-min Rain = 0
KUM1 110349Z 20008KT M01/M03 A3024 RMK A01 T10091032  RH  085%=      5-min Rain = 0
KUM1 110350Z 21008KT M01/M03 A3024 RMK A01 T10101032  RH  085%=      5-min Rain = 0
KUM1 110351Z 21008KT M01/M03 A3024 RMK A01 T10101032  RH  085%=      5-min Rain = 0
KUM1 110352Z 21008KT M01/M03 A3024 RMK A01 T10111032  RH  085%=      5-min Rain = 0
KUM1 110353Z 21008KT M01/M03 A3025 RMK A01 T10111032  RH  086%=      5-min Rain = 0
KUM1 110354Z 21008KT M01/M03 A3025 RMK A01 T10121032  RH  086%=      5-min Rain = 0
KUM1 110355Z 21009KT M01/M03 A3025 RMK A01 T10121032  RH  086%=      5-min Rain = 0
KUM1 110356Z 21010KT M01/M03 A3025 RMK A01 T10121032  RH  086%=      5-min Rain = 0
KUM1 110357Z 21010KT M01/M03 A3025 RMK A01 T10121032  RH  087%=      5-min Rain = 0
KUM1 110358Z 21010KT M01/M03 A3025 RMK A01 T10121031  RH  087%=      5-min Rain = 0
KUM1 110359Z 22009KT M01/M03 A3025 RMK A01 T10121031  RH  087%=      5-min Rain = 0
KUM1 110400Z 22009KT M01/M03 A3025 RMK A01 T10121031  RH  087%=      5-min Rain = 0
KUM1 110401Z 22008KT M01/M03 A3025 RMK A01 T10121032  RH  087%=      5-min Rain = 0
KUM1 110402Z 22008KT M01/M03 A3025 RMK A01 T10111031  RH  087%=      5-min Rain = 0
KUM1 110403Z 22009KT M01/M03 A3025 RMK A01 T10111030  RH  087%=      5-min Rain = 0
KUM1 110404Z 22009KT M01/M03 A3025 RMK A01 T10111031  RH  087%=      5-min Rain = 0
KUM1 110405Z 22009KT M01/M03 A3025 RMK A01 T10121032  RH  086%=      5-min Rain = 0
KUM1 110406Z 22009KT M01/M03 A3024 RMK A01 T10121032  RH  086%=      5-min Rain = 0
KUM1 110407Z 22009KT M01/M03 A3024 RMK A01 T10121032  RH  087%=      5-min Rain = 0
KUM1 110408Z 22009KT M01/M03 A3024 RMK A01 T10131032  RH  087%=      5-min Rain = 0
KUM1 110409Z 22009KT M01/M03 A3024 RMK A01 T10121031  RH  087%=      5-min Rain = 0
KUM1 110410Z 22009KT M01/M03 A3024 RMK A01 T10121030  RH  087%=      5-min Rain = 0
KUM1 110411Z 22009KT M01/M03 A3024 RMK A01 T10111031  RH  087%=      5-min Rain = 0
KUM1 110412Z 22009KT M01/M03 A3024 RMK A01 T10121032  RH  086%=      5-min Rain = 0
KUM1 110413Z 22009KT M01/M03 A3024 RMK A01 T10121032  RH  086%=      5-min Rain = 0
KUM1 110414Z 22008KT M01/M03 A3024 RMK A01 T10131034  RH  086%=      5-min Rain = 0
KUM1 110415Z 22008KT M01/M03 A3024 RMK A01 T10141034  RH  086%=      5-min Rain = 0
KUM1 110416Z 22008KT M01/M03 A3024 RMK A01 T10141034  RH  087%=      5-min Rain = 0
KUM1 110417Z 22008KT M02/M03 A3024 RMK A01 T10151034  RH  087%=      5-min Rain = 0
KUM1 110418Z 22009KT M02/M03 A3024 RMK A01 T10151034  RH  087%=      5-min Rain = 0
KUM1 110419Z 22009KT M02/M03 A3024 RMK A01 T10161034  RH  087%=      5-min Rain = 0
KUM1 110420Z 22009KT M02/M03 A3024 RMK A01 T10161034  RH  087%=      5-min Rain = 0
KUM1 110421Z 22009KT M02/M03 A3024 RMK A01 T10161034  RH  087%=      5-min Rain = 0
KUM1 110422Z 22009KT M02/M03 A3024 RMK A01 T10161034  RH  087%=      5-min Rain = 0
KUM1 110423Z 22009KT M02/M03 A3025 RMK A01 T10161034  RH  087%=      5-min Rain = 0
KUM1 110424Z 22008KT M02/M03 A3025 RMK A01 T10151033  RH  088%=      5-min Rain = 0
KUM1 110425Z 22009KT M02/M03 A3025 RMK A01 T10151032  RH  088%=      5-min Rain = 0
KUM1 110426Z 23008KT M01/M03 A3025 RMK A01 T10131031  RH  088%=      5-min Rain = 0
KUM1 110427Z 23009KT M01/M03 A3025 RMK A01 T10121031  RH  087%=      5-min Rain = 0
KUM1 110428Z 23009KT M01/M03 A3025 RMK A01 T10121032  RH  086%=      5-min Rain = 0
KUM1 110429Z 23009KT M01/M03 A3025 RMK A01 T10131032  RH  086%=      5-min Rain = 0
KUM1 110430Z 23008KT M01/M03 A3025 RMK A01 T10121032  RH  086%=      5-min Rain = 0
KUM1 110431Z 23009KT M01/M03 A3025 RMK A01 T10121032  RH  086%=      5-min Rain = 0
KUM1 110432Z 23008KT M01/M03 A3025 RMK A01 T10121033  RH  086%=      5-min Rain = 0
KUM1 110433Z 23007KT M01/M03 A3025 RMK A01 T10131034  RH  086%=      5-min Rain = 0
KUM1 110434Z 23007KT M02/M04 A3025 RMK A01 T10151036  RH  086%=      5-min Rain = 0
KUM1 110435Z 23007KT M02/M04 A3025 RMK A01 T10161037  RH  086%=      5-min Rain = 0
KUM1 110436Z 23008KT M02/M04 A3025 RMK A01 T10181038  RH  086%=      5-min Rain = 0
KUM1 110437Z 23008KT M02/M04 A3025 RMK A01 T10191039  RH  087%=      5-min Rain = 0
KUM1 110438Z 23008KT M02/M04 A3024 RMK A01 T10201038  RH  087%=      5-min Rain = 0
KUM1 110439Z 23008KT M02/M04 A3024 RMK A01 T10191037  RH  088%=      5-min Rain = 0
KUM1 110440Z 23008KT M02/M04 A3024 RMK A01 T10191037  RH  088%=      5-min Rain = 0
KUM1 110441Z 23009KT M02/M04 A3024 RMK A01 T10191037  RH  087%=      5-min Rain = 0
KUM1 110442Z 23010KT M02/M04 A3024 RMK A01 T10191037  RH  087%=      5-min Rain = 0
KUM1 110443Z 23009KT M02/M04 A3024 RMK A01 T10191037  RH  087%=      5-min Rain = 0
KUM1 110444Z 23010KT M02/M04 A3024 RMK A01 T10181037  RH  087%=      5-min Rain = 0
KUM1 110445Z 22009KT M02/M04 A3024 RMK A01 T10181037  RH  087%=      5-min Rain = 0
KUM1 110446Z 23009KT M02/M04 A3024 RMK A01 T10181037  RH  087%=      5-min Rain = 0
KUM1 110447Z 23009KT M02/M04 A3024 RMK A01 T10181038  RH  087%=      5-min Rain = 0
KUM1 110448Z 23009KT M02/M04 A3024 RMK A01 T10191039  RH  086%=      5-min Rain = 0
KUM1 110449Z 23010KT M02/M04 A3024 RMK A01 T10191039  RH  087%=      5-min Rain = 0
KUM1 110450Z 22009KT M02/M04 A3024 RMK A01 T10191038  RH  087%=      5-min Rain = 0
KUM1 110451Z 22009KT M02/M04 A3024 RMK A01 T10191039  RH  086%=      5-min Rain = 0
KUM1 110452Z 22009KT M02/M04 A3024 RMK A01 T10191039  RH  086%=      5-min Rain = 0
KUM1 110453Z 22009KT M02/M04 A3024 RMK A01 T10201040  RH  086%=      5-min Rain = 0
KUM1 110454Z 22010KT M02/M04 A3024 RMK A01 T10201040  RH  086%=      5-min Rain = 0
KUM1 110455Z 23009KT M02/M04 A3024 RMK A01 T10191039  RH  086%=      5-min Rain = 0
KUM1 110456Z 23009KT M02/M04 A3024 RMK A01 T10191040  RH  086%=      5-min Rain = 0
KUM1 110457Z 23009KT M02/M04 A3024 RMK A01 T10201040  RH  086%=      5-min Rain = 0
KUM1 110458Z 23009KT M02/M04 A3024 RMK A01 T10201040  RH  086%=      5-min Rain = 0
KUM1 110459Z 23010KT M02/M04 A3024 RMK A01 T10201040  RH  086%=      5-min Rain = 0
KUM1 110500Z 23009KT M02/M04 A3024 RMK A01 T10201040  RH  086%=      5-min Rain = 0
KUM1 110501Z 23008KT M02/M04 A3024 RMK A01 T10201041  RH  086%=      5-min Rain = 0
KUM1 110502Z 23009KT M02/M04 A3024 RMK A01 T10201041  RH  086%=      5-min Rain = 0
KUM1 110503Z 23008KT M02/M04 A3024 RMK A01 T10201042  RH  086%=      5-min Rain = 0
KUM1 110504Z 23008KT M02/M04 A3024 RMK A01 T10211042  RH  086%=      5-min Rain = 0
KUM1 110505Z 23008KT M02/M04 A3024 RMK A01 T10211042  RH  086%=      5-min Rain = 0
KUM1 110506Z 23007KT M02/M04 A3023 RMK A01 T10221044  RH  085%=      5-min Rain = 0
KUM1 110507Z 23008KT M02/M04 A3023 RMK A01 T10231044  RH  086%=      5-min Rain = 0
KUM1 110508Z 23007KT M02/M04 A3023 RMK A01 T10231043  RH  086%=      5-min Rain = 0
KUM1 110509Z 23008KT M02/M04 A3023 RMK A01 T10231043  RH  086%=      5-min Rain = 0
KUM1 110510Z 23008KT M02/M04 A3023 RMK A01 T10231044  RH  086%=      5-min Rain = 0
KUM1 110511Z 23008KT M02/M04 A3023 RMK A01 T10231044  RH  086%=      5-min Rain = 0
KUM1 110512Z 23008KT M02/M04 A3023 RMK A01 T10231044  RH  086%=      5-min Rain = 0
KUM1 110513Z 23008KT M02/M05 A3023 RMK A01 T10241045  RH  086%=      5-min Rain = 0
KUM1 110514Z 23009KT M02/M05 A3023 RMK A01 T10241045  RH  086%=      5-min Rain = 0
KUM1 110515Z 23008KT M03/M05 A3023 RMK A01 T10251045  RH  086%=      5-min Rain = 0
KUM1 110516Z 23009KT M03/M05 A3023 RMK A01 T10251046  RH  086%=      5-min Rain = 0
KUM1 110517Z 23009KT M03/M05 A3023 RMK A01 T10251046  RH  086%=      5-min Rain = 0
KUM1 110518Z 23009KT M03/M05 A3023 RMK A01 T10261047  RH  086%=      5-min Rain = 0
KUM1 110519Z 23010KT M03/M05 A3023 RMK A01 T10261046  RH  086%=      5-min Rain = 0
KUM1 110520Z 23009KT M03/M05 A3023 RMK A01 T10251045  RH  086%=      5-min Rain = 0
KUM1 110521Z 23008KT M02/M05 A3023 RMK A01 T10241045  RH  085%=      5-min Rain = 0
KUM1 110522Z 23009KT M02/M05 A3023 RMK A01 T10241046  RH  085%=      5-min Rain = 0
KUM1 110523Z 23009KT M02/M05 A3023 RMK A01 T10231046  RH  085%=      5-min Rain = 0
KUM1 110524Z 23009KT M02/M05 A3023 RMK A01 T10241046  RH  085%=      5-min Rain = 0
KUM1 110525Z 24009KT M02/M05 A3023 RMK A01 T10241046  RH  085%=      5-min Rain = 0
KUM1 110526Z 24009KT M03/M05 A3023 RMK A01 T10251047  RH  085%=      5-min Rain = 0
KUM1 110527Z 24009KT M03/M05 A3023 RMK A01 T10261048  RH  085%=      5-min Rain = 0
KUM1 110528Z 24010KT M03/M05 A3023 RMK A01 T10261049  RH  085%=      5-min Rain = 0
KUM1 110529Z 23010KT M03/M05 A3023 RMK A01 T10271049  RH  085%=      5-min Rain = 0
KUM1 110530Z 23010KT M03/M05 A3023 RMK A01 T10271049  RH  085%=      5-min Rain = 0
KUM1 110531Z 24009KT M03/M05 A3023 RMK A01 T10281050  RH  085%=      5-min Rain = 0
KUM1 110532Z 23008KT M03/M05 A3023 RMK A01 T10281050  RH  085%=      5-min Rain = 0
KUM1 110533Z 23009KT M03/M05 A3023 RMK A01 T10291051  RH  085%=      5-min Rain = 0
KUM1 110534Z 23009KT M03/M05 A3023 RMK A01 T10301052  RH  085%=      5-min Rain = 0
KUM1 110535Z 23009KT M03/M05 A3023 RMK A01 T10301051  RH  086%=      5-min Rain = 0
KUM1 110536Z 23009KT M03/M05 A3023 RMK A01 T10291049  RH  086%=      5-min Rain = 0
KUM1 110537Z 23008KT M03/M05 A3023 RMK A01 T10281049  RH  086%=      5-min Rain = 0
KUM1 110538Z 23008KT M03/M05 A3023 RMK A01 T10271048  RH  086%=      5-min Rain = 0
KUM1 110539Z 23008KT M03/M05 A3023 RMK A01 T10261048  RH  085%=      5-min Rain = 0
KUM1 110540Z 23009KT M03/M05 A3022 RMK A01 T10261048  RH  085%=      5-min Rain = 0
KUM1 110541Z 23009KT M03/M05 A3022 RMK A01 T10251047  RH  085%=      5-min Rain = 0
KUM1 110542Z 23009KT M02/M05 A3022 RMK A01 T10241046  RH  085%=      5-min Rain = 0
KUM1 110543Z 22009KT M02/M05 A3022 RMK A01 T10231046  RH  085%=      5-min Rain = 0
KUM1 110544Z 22009KT M02/M05 A3022 RMK A01 T10231047  RH  084%=      5-min Rain = 0
KUM1 110545Z 22010KT M02/M05 A3022 RMK A01 T10241048  RH  084%=      5-min Rain = 0
KUM1 110546Z 22010KT M02/M05 A3022 RMK A01 T10241048  RH  084%=      5-min Rain = 0
KUM1 110547Z 23010KT M02/M05 A3022 RMK A01 T10241048  RH  084%=      5-min Rain = 0
KUM1 110548Z 22011KT M02/M05 A3022 RMK A01 T10241048  RH  084%=      5-min Rain = 0
KUM1 110549Z 22010KT M02/M05 A3022 RMK A01 T10241048  RH  084%=      5-min Rain = 0
KUM1 110550Z 23010KT M02/M05 A3022 RMK A01 T10231047  RH  083%=      5-min Rain = 0
KUM1 110551Z 23011KT M02/M05 A3022 RMK A01 T10221047  RH  083%=      5-min Rain = 0
KUM1 110552Z 23010KT M02/M05 A3022 RMK A01 T10221047  RH  083%=      5-min Rain = 0
KUM1 110553Z 23011KT M02/M05 A3022 RMK A01 T10221048  RH  082%=      5-min Rain = 0
KUM1 110554Z 23010KT M02/M05 A3022 RMK A01 T10211047  RH  082%=      5-min Rain = 0
KUM1 110555Z 23011KT M02/M05 A3022 RMK A01 T10211047  RH  082%=      5-min Rain = 0
KUM1 110556Z 23010KT M02/M05 A3022 RMK A01 T10201047  RH  082%=      5-min Rain = 0
KUM1 110557Z 23010KT M02/M05 A3022 RMK A01 T10201047  RH  082%=      5-min Rain = 0
KUM1 110558Z 23010KT M02/M05 A3022 RMK A01 T10191047  RH  081%=      5-min Rain = 0
KUM1 110559Z 23010KT M02/M05 A3022 RMK A01 T10191048  RH  081%=      5-min Rain = 0

Page generated in 0.1566 seconds.